Wetterdaten: Freitag, 01.05.2026
Datum Zeit Temp. Aussen Temp. o. S. Temp +5cm Feuchte Auss Luftdruck Regen Sonnenschein Solar Windböen Empfang
01.05.2026 00:00 13,9 °C 12,8 °C 10,0 °C 50 % 1026,7 hPa 0,0 l/m² 0 min 0 W/m² 16,1 km/h (3 Bft) 95,74 %
01.05.2026 00:02 13,9 °C 13,3 °C 10,0 °C 49 % 1026,7 hPa 0,0 l/m² 0 min 0 W/m² 9,7 km/h (2 Bft) 95,65 %
01.05.2026 00:04 14,0 °C 13,3 °C 10,0 °C 50 % 1026,7 hPa 0,0 l/m² 0 min 0 W/m² 6,4 km/h (2 Bft) 97,87 %
01.05.2026 00:07 14,0 °C 13,3 °C 10,0 °C 50 % 1026,7 hPa 0,0 l/m² 0 min 0 W/m² 6,4 km/h (2 Bft) 95,31 %
01.05.2026 00:08 14,0 °C 13,3 °C 10,0 °C 49 % 1026,7 hPa 0,0 l/m² 0 min 0 W/m² 6,4 km/h (2 Bft) 100,00 %
01.05.2026 00:10 14,1 °C 13,3 °C 10,0 °C 49 % 1026,7 hPa 0,0 l/m² 0 min 0 W/m² 6,4 km/h (2 Bft) 100,00 %
01.05.2026 00:12 14,1 °C 13,3 °C 10,0 °C 50 % 1026,7 hPa 0,0 l/m² 0 min 0 W/m² 9,7 km/h (2 Bft) 93,62 %
01.05.2026 00:14 14,1 °C 12,8 °C 10,0 °C 50 % 1026,7 hPa 0,0 l/m² 0 min 0 W/m² 6,4 km/h (2 Bft) 97,87 %
01.05.2026 00:16 14,1 °C 12,8 °C 10,0 °C 49 % 1026,8 hPa 0,0 l/m² 0 min 0 W/m² 6,4 km/h (2 Bft) 94,74 %
01.05.2026 00:18 14,1 °C 12,8 °C 10,0 °C 49 % 1026,7 hPa 0,0 l/m² 0 min 0 W/m² 6,4 km/h (2 Bft) 96,00 %
01.05.2026 00:20 14,1 °C 12,8 °C 10,0 °C 50 % 1026,7 hPa 0,0 l/m² 0 min 0 W/m² 6,4 km/h (2 Bft) 98,11 %
01.05.2026 00:22 14,1 °C 13,3 °C 10,0 °C 49 % 1026,7 hPa 0,0 l/m² 0 min 0 W/m² 12,9 km/h (3 Bft) 97,14 %
01.05.2026 00:24 14,1 °C 12,8 °C 10,0 °C 50 % 1026,7 hPa 0,0 l/m² 0 min 0 W/m² 9,7 km/h (2 Bft) 100,00 %
01.05.2026 00:26 14,1 °C 12,8 °C 9,4 °C 50 % 1026,7 hPa 0,0 l/m² 0 min 0 W/m² 9,7 km/h (2 Bft) 97,87 %
01.05.2026 00:28 14,1 °C 12,8 °C 10,0 °C 50 % 1026,7 hPa 0,0 l/m² 0 min 0 W/m² 6,4 km/h (2 Bft) 95,74 %
01.05.2026 00:30 14,1 °C 12,8 °C 9,4 °C 50 % 1026,6 hPa 0,0 l/m² 0 min 0 W/m² 9,7 km/h (2 Bft) 97,87 %
01.05.2026 00:32 14,0 °C 12,8 °C 9,4 °C 50 % 1026,7 hPa 0,0 l/m² 0 min 0 W/m² 9,7 km/h (2 Bft) 100,00 %
01.05.2026 00:34 14,0 °C 12,8 °C 9,4 °C 50 % 1026,7 hPa 0,0 l/m² 0 min 0 W/m² 9,7 km/h (2 Bft) 97,87 %
01.05.2026 00:36 14,0 °C 12,8 °C 9,4 °C 50 % 1026,6 hPa 0,0 l/m² 0 min 0 W/m² 6,4 km/h (2 Bft) 97,87 %
01.05.2026 00:38 13,9 °C 12,8 °C 9,4 °C 50 % 1026,6 hPa 0,0 l/m² 0 min 0 W/m² 6,4 km/h (2 Bft) 100,00 %
01.05.2026 00:40 13,9 °C 12,8 °C 9,4 °C 51 % 1026,6 hPa 0,0 l/m² 0 min 0 W/m² 9,7 km/h (2 Bft) 100,00 %
01.05.2026 00:42 13,9 °C 12,8 °C 9,4 °C 50 % 1026,6 hPa 0,0 l/m² 0 min 0 W/m² 6,4 km/h (2 Bft) 97,87 %
01.05.2026 00:44 13,9 °C 12,8 °C 9,4 °C 50 % 1026,6 hPa 0,0 l/m² 0 min 0 W/m² 12,9 km/h (3 Bft) 100,00 %
01.05.2026 00:46 13,9 °C 12,8 °C 9,4 °C 51 % 1026,6 hPa 0,0 l/m² 0 min 0 W/m² 12,9 km/h (3 Bft) 95,74 %
01.05.2026 00:48 13,9 °C 12,8 °C 9,4 °C 50 % 1026,6 hPa 0,0 l/m² 0 min 0 W/m² 12,9 km/h (3 Bft) 100,00 %
01.05.2026 00:50 13,9 °C 12,8 °C 9,4 °C 50 % 1026,6 hPa 0,0 l/m² 0 min 0 W/m² 6,4 km/h (2 Bft) 100,00 %
01.05.2026 00:52 13,8 °C 12,8 °C 9,4 °C 51 % 1026,6 hPa 0,0 l/m² 0 min 0 W/m² 12,9 km/h (3 Bft) 100,00 %
01.05.2026 00:54 13,8 °C 12,8 °C 9,4 °C 51 % 1026,6 hPa 0,0 l/m² 0 min 0 W/m² 9,7 km/h (2 Bft) 100,00 %
01.05.2026 00:56 13,8 °C 12,8 °C 9,4 °C 51 % 1026,7 hPa 0,0 l/m² 0 min 0 W/m² 12,9 km/h (3 Bft) 100,00 %
01.05.2026 00:58 13,8 °C 12,8 °C 9,4 °C 51 % 1026,7 hPa 0,0 l/m² 0 min 0 W/m² 6,4 km/h (2 Bft) 100,00 %
01.05.2026 01:00 13,8 °C 12,8 °C 9,4 °C 51 % 1026,7 hPa 0,0 l/m² 0 min 0 W/m² 9,7 km/h (2 Bft) 100,00 %
01.05.2026 01:02 13,8 °C 12,8 °C 9,4 °C 51 % 1026,7 hPa 0,0 l/m² 0 min 0 W/m² 9,7 km/h (2 Bft) 100,00 %
01.05.2026 01:04 13,7 °C 12,8 °C 9,4 °C 52 % 1026,6 hPa 0,0 l/m² 0 min 0 W/m² 6,4 km/h (2 Bft) 100,00 %
01.05.2026 01:06 13,7 °C 12,8 °C 9,4 °C 52 % 1026,7 hPa 0,0 l/m² 0 min 0 W/m² 6,4 km/h (2 Bft) 100,00 %
01.05.2026 01:08 13,7 °C 12,8 °C 9,4 °C 52 % 1026,7 hPa 0,0 l/m² 0 min 0 W/m² 9,7 km/h (2 Bft) 100,00 %
01.05.2026 01:10 13,7 °C 12,8 °C 9,4 °C 52 % 1026,7 hPa 0,0 l/m² 0 min 0 W/m² 12,9 km/h (3 Bft) 100,00 %
01.05.2026 01:12 13,7 °C 12,8 °C 9,4 °C 52 % 1026,7 hPa 0,0 l/m² 0 min 0 W/m² 12,9 km/h (3 Bft) 100,00 %
01.05.2026 01:14 13,7 °C 12,8 °C 9,4 °C 52 % 1026,7 hPa 0,0 l/m² 0 min 0 W/m² 6,4 km/h (2 Bft) 97,96 %
01.05.2026 01:16 13,6 °C 12,8 °C 9,4 °C 52 % 1026,7 hPa 0,0 l/m² 0 min 0 W/m² 12,9 km/h (3 Bft) 97,87 %
01.05.2026 01:18 13,6 °C 12,2 °C 9,4 °C 52 % 1026,7 hPa 0,0 l/m² 0 min 0 W/m² 9,7 km/h (2 Bft) 100,00 %
01.05.2026 01:20 13,6 °C 12,8 °C 9,4 °C 52 % 1026,6 hPa 0,0 l/m² 0 min 0 W/m² 12,9 km/h (3 Bft) 97,56 %
01.05.2026 01:22 13,6 °C 12,2 °C 9,4 °C 52 % 1026,7 hPa 0,0 l/m² 0 min 0 W/m² 9,7 km/h (2 Bft) 100,00 %
01.05.2026 01:24 13,6 °C 12,2 °C 8,9 °C 52 % 1026,7 hPa 0,0 l/m² 0 min 0 W/m² 9,7 km/h (2 Bft) 100,00 %
01.05.2026 01:26 13,6 °C 12,2 °C 8,9 °C 53 % 1026,7 hPa 0,0 l/m² 0 min 0 W/m² 6,4 km/h (2 Bft) 97,87 %
01.05.2026 01:28 13,5 °C 12,2 °C 8,9 °C 53 % 1026,7 hPa 0,0 l/m² 0 min 0 W/m² 6,4 km/h (2 Bft) 100,00 %
01.05.2026 01:30 13,5 °C 12,2 °C 8,9 °C 53 % 1026,7 hPa 0,0 l/m² 0 min 0 W/m² 12,9 km/h (3 Bft) 100,00 %
01.05.2026 01:32 13,4 °C 12,2 °C 8,9 °C 53 % 1026,7 hPa 0,0 l/m² 0 min 0 W/m² 6,4 km/h (2 Bft) 100,00 %
01.05.2026 01:34 13,4 °C 12,2 °C 8,9 °C 53 % 1026,7 hPa 0,0 l/m² 0 min 0 W/m² 16,1 km/h (3 Bft) 98,00 %
01.05.2026 01:36 13,4 °C 12,2 °C 8,9 °C 53 % 1026,7 hPa 0,0 l/m² 0 min 0 W/m² 9,7 km/h (2 Bft) 96,00 %
01.05.2026 01:38 13,4 °C 12,2 °C 8,9 °C 53 % 1026,6 hPa 0,0 l/m² 0 min 0 W/m² 6,4 km/h (2 Bft) 95,74 %
01.05.2026 01:40 13,3 °C 12,2 °C 8,9 °C 54 % 1026,7 hPa 0,0 l/m² 0 min 0 W/m² 9,7 km/h (2 Bft) 94,74 %
01.05.2026 01:42 13,3 °C 12,2 °C 8,9 °C 53 % 1026,7 hPa 0,0 l/m² 0 min 0 W/m² 16,1 km/h (3 Bft) 96,00 %
01.05.2026 01:44 13,3 °C 12,2 °C 8,9 °C 54 % 1026,6 hPa 0,0 l/m² 0 min 0 W/m² 6,4 km/h (2 Bft) 96,00 %
01.05.2026 01:46 13,2 °C 12,2 °C 8,9 °C 54 % 1026,6 hPa 0,0 l/m² 0 min 0 W/m² 9,7 km/h (2 Bft) 94,74 %
01.05.2026 01:48 13,2 °C 12,2 °C 8,9 °C 54 % 1026,6 hPa 0,0 l/m² 0 min 0 W/m² 12,9 km/h (3 Bft) 96,00 %
01.05.2026 01:50 13,2 °C 12,2 °C 8,9 °C 54 % 1026,6 hPa 0,0 l/m² 0 min 0 W/m² 16,1 km/h (3 Bft) 95,92 %
01.05.2026 01:52 13,2 °C 12,2 °C 8,9 °C 54 % 1026,6 hPa 0,0 l/m² 0 min 0 W/m² 6,4 km/h (2 Bft) 91,49 %
01.05.2026 01:54 13,1 °C 12,2 °C 8,9 °C 54 % 1026,6 hPa 0,0 l/m² 0 min 0 W/m² 9,7 km/h (2 Bft) 95,74 %
01.05.2026 01:56 13,1 °C 12,2 °C 8,9 °C 54 % 1026,5 hPa 0,0 l/m² 0 min 0 W/m² 12,9 km/h (3 Bft) 94,00 %
01.05.2026 01:58 13,1 °C 12,2 °C 8,9 °C 54 % 1026,6 hPa 0,0 l/m² 0 min 0 W/m² 9,7 km/h (2 Bft) 95,74 %
01.05.2026 02:00 13,1 °C 11,7 °C 8,9 °C 54 % 1026,5 hPa 0,0 l/m² 0 min 0 W/m² 6,4 km/h (2 Bft) 95,74 %
01.05.2026 02:02 13,0 °C 11,7 °C 8,9 °C 55 % 1026,5 hPa 0,0 l/m² 0 min 0 W/m² 9,7 km/h (2 Bft) 95,74 %
01.05.2026 02:04 13,0 °C 11,7 °C 8,9 °C 54 % 1026,5 hPa 0,0 l/m² 0 min 0 W/m² 9,7 km/h (2 Bft) 91,30 %
01.05.2026 02:06 12,9 °C 11,7 °C 8,3 °C 55 % 1026,5 hPa 0,0 l/m² 0 min 0 W/m² 6,4 km/h (2 Bft) 95,74 %
01.05.2026 02:08 12,9 °C 11,7 °C 8,3 °C 55 % 1026,5 hPa 0,0 l/m² 0 min 0 W/m² 6,4 km/h (2 Bft) 97,87 %
01.05.2026 02:10 12,9 °C 11,7 °C 8,3 °C 55 % 1026,5 hPa 0,0 l/m² 0 min 0 W/m² 6,4 km/h (2 Bft) 97,37 %
01.05.2026 02:12 12,8 °C 11,7 °C 8,3 °C 55 % 1026,5 hPa 0,0 l/m² 0 min 0 W/m² 6,4 km/h (2 Bft) 97,87 %
01.05.2026 02:14 12,8 °C 11,7 °C 8,3 °C 55 % 1026,5 hPa 0,0 l/m² 0 min 0 W/m² 6,4 km/h (2 Bft) 97,87 %
01.05.2026 02:16 12,8 °C 11,7 °C 8,3 °C 56 % 1026,6 hPa 0,0 l/m² 0 min 0 W/m² 9,7 km/h (2 Bft) 98,00 %
01.05.2026 02:18 12,8 °C 11,7 °C 8,3 °C 56 % 1026,6 hPa 0,0 l/m² 0 min 0 W/m² 6,4 km/h (2 Bft) 97,87 %
01.05.2026 02:20 12,7 °C 11,7 °C 8,3 °C 56 % 1026,6 hPa 0,0 l/m² 0 min 0 W/m² 3,2 km/h (1 Bft) 100,00 %
01.05.2026 02:22 12,7 °C 11,7 °C 8,3 °C 56 % 1026,7 hPa 0,0 l/m² 0 min 0 W/m² 3,2 km/h (1 Bft) 100,00 %
01.05.2026 02:24 12,6 °C 11,1 °C 8,3 °C 56 % 1026,7 hPa 0,0 l/m² 0 min 0 W/m² 6,4 km/h (2 Bft) 100,00 %
01.05.2026 02:26 12,6 °C 11,1 °C 8,3 °C 56 % 1026,7 hPa 0,0 l/m² 0 min 0 W/m² 3,2 km/h (1 Bft) 97,37 %
01.05.2026 02:28 12,6 °C 11,1 °C 8,3 °C 57 % 1026,6 hPa 0,0 l/m² 0 min 0 W/m² 9,7 km/h (2 Bft) 100,00 %
01.05.2026 02:30 12,5 °C 11,1 °C 8,3 °C 57 % 1026,6 hPa 0,0 l/m² 0 min 0 W/m² 6,4 km/h (2 Bft) 93,62 %
01.05.2026 02:32 12,4 °C 11,1 °C 8,3 °C 57 % 1026,7 hPa 0,0 l/m² 0 min 0 W/m² 6,4 km/h (2 Bft) 97,87 %
01.05.2026 02:34 12,4 °C 11,1 °C 7,8 °C 57 % 1026,6 hPa 0,0 l/m² 0 min 0 W/m² 6,4 km/h (2 Bft) 98,00 %
01.05.2026 02:36 12,4 °C 11,1 °C 7,8 °C 57 % 1026,7 hPa 0,0 l/m² 0 min 0 W/m² 6,4 km/h (2 Bft) 97,96 %
01.05.2026 02:38 12,3 °C 11,1 °C 7,8 °C 57 % 1026,7 hPa 0,0 l/m² 0 min 0 W/m² 6,4 km/h (2 Bft) 97,87 %
01.05.2026 02:40 12,3 °C 11,1 °C 7,8 °C 57 % 1026,7 hPa 0,0 l/m² 0 min 0 W/m² 3,2 km/h (1 Bft) 97,87 %
01.05.2026 02:42 12,3 °C 11,1 °C 7,8 °C 57 % 1026,6 hPa 0,0 l/m² 0 min 0 W/m² 6,4 km/h (2 Bft) 97,87 %
01.05.2026 02:44 12,2 °C 11,1 °C 7,8 °C 58 % 1026,6 hPa 0,0 l/m² 0 min 0 W/m² 6,4 km/h (2 Bft) 97,87 %
01.05.2026 02:46 12,2 °C 11,1 °C 7,8 °C 58 % 1026,5 hPa 0,0 l/m² 0 min 0 W/m² 3,2 km/h (1 Bft) 95,74 %
01.05.2026 02:48 12,2 °C 10,6 °C 7,8 °C 58 % 1026,6 hPa 0,0 l/m² 0 min 0 W/m² 3,2 km/h (1 Bft) 56,00 %
01.05.2026 02:50 12,2 °C 10,6 °C 7,8 °C 59 % 1026,5 hPa 0,0 l/m² 0 min 0 W/m² 6,4 km/h (2 Bft) 97,14 %
01.05.2026 02:52 12,1 °C 10,6 °C 7,8 °C 58 % 1026,5 hPa 0,0 l/m² 0 min 0 W/m² 3,2 km/h (1 Bft) 97,96 %
01.05.2026 02:54 12,1 °C 10,6 °C 7,8 °C 58 % 1026,5 hPa 0,0 l/m² 0 min 0 W/m² 6,4 km/h (2 Bft) 96,00 %
01.05.2026 02:56 12,1 °C 10,6 °C 7,8 °C 58 % 1026,5 hPa 0,0 l/m² 0 min 0 W/m² 6,4 km/h (2 Bft) 97,87 %
01.05.2026 02:58 12,0 °C 10,6 °C 7,8 °C 58 % 1026,4 hPa 0,0 l/m² 0 min 0 W/m² 6,4 km/h (2 Bft) 97,87 %
01.05.2026 03:00 12,0 °C 11,1 °C 7,8 °C 58 % 1026,4 hPa 0,0 l/m² 0 min 0 W/m² 6,4 km/h (2 Bft) 98,00 %
01.05.2026 03:02 11,9 °C 11,1 °C 7,8 °C 58 % 1026,4 hPa 0,0 l/m² 0 min 0 W/m² 6,4 km/h (2 Bft) 93,62 %
01.05.2026 03:04 11,9 °C 11,1 °C 7,8 °C 58 % 1026,4 hPa 0,0 l/m² 0 min 0 W/m² 3,2 km/h (1 Bft) 97,87 %
01.05.2026 03:06 11,9 °C 11,1 °C 7,8 °C 58 % 1026,4 hPa 0,0 l/m² 0 min 0 W/m² 6,4 km/h (2 Bft) 96,15 %
01.05.2026 03:08 11,9 °C 11,1 °C 7,8 °C 58 % 1026,5 hPa 0,0 l/m² 0 min 0 W/m² 3,2 km/h (1 Bft) 94,29 %
01.05.2026 03:10 11,9 °C 11,1 °C 7,8 °C 58 % 1026,4 hPa 0,0 l/m² 0 min 0 W/m² 6,4 km/h (2 Bft) 97,87 %
01.05.2026 03:12 11,9 °C 11,1 °C 7,8 °C 59 % 1026,4 hPa 0,0 l/m² 0 min 0 W/m² 6,4 km/h (2 Bft) 98,11 %
01.05.2026 03:14 11,9 °C 11,1 °C 7,8 °C 59 % 1026,5 hPa 0,0 l/m² 0 min 0 W/m² 9,7 km/h (2 Bft) 97,87 %
01.05.2026 03:16 11,8 °C 11,1 °C 7,8 °C 59 % 1026,5 hPa 0,0 l/m² 0 min 0 W/m² 6,4 km/h (2 Bft) 97,87 %
01.05.2026 03:18 11,8 °C 11,1 °C 7,8 °C 59 % 1026,5 hPa 0,0 l/m² 0 min 0 W/m² 9,7 km/h (2 Bft) 97,87 %
01.05.2026 03:20 11,8 °C 11,1 °C 7,8 °C 59 % 1026,6 hPa 0,0 l/m² 0 min 0 W/m² 6,4 km/h (2 Bft) 93,62 %
01.05.2026 03:22 11,8 °C 11,1 °C 7,8 °C 59 % 1026,6 hPa 0,0 l/m² 0 min 0 W/m² 12,9 km/h (3 Bft) 95,92 %
01.05.2026 03:24 11,8 °C 11,1 °C 7,8 °C 59 % 1026,6 hPa 0,0 l/m² 0 min 0 W/m² 6,4 km/h (2 Bft) 100,00 %
01.05.2026 03:26 11,8 °C 11,1 °C 7,8 °C 59 % 1026,6 hPa 0,0 l/m² 0 min 0 W/m² 9,7 km/h (2 Bft) 96,36 %
01.05.2026 03:28 11,8 °C 11,1 °C 7,8 °C 59 % 1026,5 hPa 0,0 l/m² 0 min 0 W/m² 9,7 km/h (2 Bft) 97,87 %
01.05.2026 03:30 11,8 °C 11,1 °C 7,8 °C 59 % 1026,5 hPa 0,0 l/m² 0 min 0 W/m² 9,7 km/h (2 Bft) 95,74 %
01.05.2026 03:32 11,8 °C 11,1 °C 7,8 °C 59 % 1026,5 hPa 0,0 l/m² 0 min 0 W/m² 9,7 km/h (2 Bft) 95,74 %
01.05.2026 03:34 11,8 °C 11,1 °C 7,8 °C 59 % 1026,5 hPa 0,0 l/m² 0 min 0 W/m² 6,4 km/h (2 Bft) 98,00 %
01.05.2026 03:36 11,8 °C 11,1 °C 7,8 °C 59 % 1026,5 hPa 0,0 l/m² 0 min 0 W/m² 6,4 km/h (2 Bft) 97,56 %
01.05.2026 03:38 11,8 °C 11,1 °C 7,8 °C 59 % 1026,5 hPa 0,0 l/m² 0 min 0 W/m² 6,4 km/h (2 Bft) 96,00 %
01.05.2026 03:40 11,8 °C 11,1 °C 7,8 °C 59 % 1026,5 hPa 0,0 l/m² 0 min 0 W/m² 6,4 km/h (2 Bft) 95,92 %
01.05.2026 03:42 11,8 °C 11,1 °C 7,8 °C 59 % 1026,6 hPa 0,0 l/m² 0 min 0 W/m² 12,9 km/h (3 Bft) 95,74 %
01.05.2026 03:44 11,8 °C 10,6 °C 7,8 °C 59 % 1026,5 hPa 0,0 l/m² 0 min 0 W/m² 12,9 km/h (3 Bft) 97,87 %
01.05.2026 03:46 11,7 °C 10,6 °C 7,8 °C 59 % 1026,5 hPa 0,0 l/m² 0 min 0 W/m² 6,4 km/h (2 Bft) 94,74 %
01.05.2026 03:48 11,7 °C 10,6 °C 7,8 °C 59 % 1026,6 hPa 0,0 l/m² 0 min 0 W/m² 6,4 km/h (2 Bft) 98,04 %
01.05.2026 03:50 11,7 °C 10,6 °C 7,8 °C 59 % 1026,6 hPa 0,0 l/m² 0 min 0 W/m² 6,4 km/h (2 Bft) 98,00 %
01.05.2026 03:52 11,7 °C 10,6 °C 7,8 °C 59 % 1026,6 hPa 0,0 l/m² 0 min 0 W/m² 6,4 km/h (2 Bft) 97,37 %
01.05.2026 03:54 11,7 °C 10,6 °C 7,8 °C 60 % 1026,6 hPa 0,0 l/m² 0 min 0 W/m² 6,4 km/h (2 Bft) 97,87 %
01.05.2026 03:56 11,7 °C 10,6 °C 7,8 °C 60 % 1026,5 hPa 0,0 l/m² 0 min 0 W/m² 6,4 km/h (2 Bft) 100,00 %
01.05.2026 03:58 11,7 °C 10,6 °C 7,8 °C 60 % 1026,5 hPa 0,0 l/m² 0 min 0 W/m² 6,4 km/h (2 Bft) 100,00 %
01.05.2026 04:00 11,7 °C 10,6 °C 7,2 °C 60 % 1026,5 hPa 0,0 l/m² 0 min 0 W/m² 6,4 km/h (2 Bft) 100,00 %
01.05.2026 04:02 11,6 °C 10,6 °C 7,2 °C 60 % 1026,5 hPa 0,0 l/m² 0 min 0 W/m² 6,4 km/h (2 Bft) 95,74 %
01.05.2026 04:04 11,6 °C 10,6 °C 7,2 °C 60 % 1026,5 hPa 0,0 l/m² 0 min 0 W/m² 3,2 km/h (1 Bft) 100,00 %
01.05.2026 04:06 11,6 °C 10,6 °C 7,2 °C 60 % 1026,5 hPa 0,0 l/m² 0 min 0 W/m² 6,4 km/h (2 Bft) 97,87 %
01.05.2026 04:08 11,6 °C 10,6 °C 7,2 °C 60 % 1026,5 hPa 0,0 l/m² 0 min 0 W/m² 6,4 km/h (2 Bft) 98,00 %
01.05.2026 04:10 11,6 °C 10,6 °C 7,2 °C 60 % 1026,5 hPa 0,0 l/m² 0 min 0 W/m² 6,4 km/h (2 Bft) 98,00 %
01.05.2026 04:12 11,6 °C 10,6 °C 7,2 °C 60 % 1026,5 hPa 0,0 l/m² 0 min 0 W/m² 9,7 km/h (2 Bft) 97,83 %
01.05.2026 04:14 11,6 °C 10,6 °C 7,2 °C 61 % 1026,5 hPa 0,0 l/m² 0 min 0 W/m² 6,4 km/h (2 Bft) 97,87 %
01.05.2026 04:16 11,5 °C 10,6 °C 7,2 °C 60 % 1026,5 hPa 0,0 l/m² 0 min 0 W/m² 6,4 km/h (2 Bft) 97,87 %
01.05.2026 04:18 11,5 °C 10,6 °C 7,2 °C 61 % 1026,5 hPa 0,0 l/m² 0 min 0 W/m² 12,9 km/h (3 Bft) 95,74 %
01.05.2026 04:20 11,4 °C 10,6 °C 7,2 °C 61 % 1026,5 hPa 0,0 l/m² 0 min 0 W/m² 3,2 km/h (1 Bft) 100,00 %
01.05.2026 04:22 11,4 °C 10,6 °C 7,2 °C 61 % 1026,5 hPa 0,0 l/m² 0 min 0 W/m² 6,4 km/h (2 Bft) 97,87 %
01.05.2026 04:24 11,4 °C 10,6 °C 7,2 °C 61 % 1026,6 hPa 0,0 l/m² 0 min 0 W/m² 3,2 km/h (1 Bft) 93,62 %
01.05.2026 04:26 11,4 °C 10,0 °C 7,2 °C 61 % 1026,6 hPa 0,0 l/m² 0 min 0 W/m² 3,2 km/h (1 Bft) 97,87 %
01.05.2026 04:28 11,4 °C 10,0 °C 7,2 °C 61 % 1026,5 hPa 0,0 l/m² 0 min 0 W/m² 3,2 km/h (1 Bft) 97,87 %
01.05.2026 04:30 11,4 °C 10,0 °C 7,2 °C 62 % 1026,6 hPa 0,0 l/m² 0 min 0 W/m² 3,2 km/h (1 Bft) 98,00 %
01.05.2026 04:32 11,3 °C 10,0 °C 7,2 °C 61 % 1026,5 hPa 0,0 l/m² 0 min 0 W/m² 3,2 km/h (1 Bft) 97,96 %
01.05.2026 04:34 11,3 °C 10,0 °C 7,2 °C 62 % 1026,6 hPa 0,0 l/m² 0 min 0 W/m² 3,2 km/h (1 Bft) 94,74 %
01.05.2026 04:36 11,3 °C 10,0 °C 6,7 °C 62 % 1026,6 hPa 0,0 l/m² 0 min 0 W/m² 3,2 km/h (1 Bft) 97,87 %
01.05.2026 04:38 11,3 °C 10,0 °C 6,7 °C 62 % 1026,6 hPa 0,0 l/m² 0 min 0 W/m² 0,0 km/h (0 Bft) 97,87 %
01.05.2026 04:40 11,2 °C 9,4 °C 6,7 °C 62 % 1026,6 hPa 0,0 l/m² 0 min 0 W/m² 3,2 km/h (1 Bft) 96,61 %
01.05.2026 04:42 11,2 °C 9,4 °C 6,7 °C 62 % 1026,6 hPa 0,0 l/m² 0 min 0 W/m² 3,2 km/h (1 Bft) 59,57 %
01.05.2026 04:44 11,2 °C 9,4 °C 6,7 °C 62 % 1026,6 hPa 0,0 l/m² 0 min 0 W/m² 3,2 km/h (1 Bft) 94,29 %
01.05.2026 04:46 11,2 °C 9,4 °C 6,7 °C 62 % 1026,6 hPa 0,0 l/m² 0 min 0 W/m² 0,0 km/h (0 Bft) 98,28 %
01.05.2026 04:48 11,1 °C 9,4 °C 6,1 °C 63 % 1026,6 hPa 0,0 l/m² 0 min 0 W/m² 0,0 km/h (0 Bft) 95,74 %
01.05.2026 04:50 11,1 °C 9,4 °C 6,1 °C 63 % 1026,6 hPa 0,0 l/m² 0 min 0 W/m² 0,0 km/h (0 Bft) 100,00 %
01.05.2026 04:52 11,1 °C 8,9 °C 6,1 °C 63 % 1026,6 hPa 0,0 l/m² 0 min 0 W/m² 0,0 km/h (0 Bft) 100,00 %
01.05.2026 04:54 10,9 °C 8,9 °C 6,1 °C 63 % 1026,6 hPa 0,0 l/m² 0 min 0 W/m² 0,0 km/h (0 Bft) 100,00 %
01.05.2026 04:56 10,9 °C 8,9 °C 6,1 °C 64 % 1026,5 hPa 0,0 l/m² 0 min 0 W/m² 0,0 km/h (0 Bft) 100,00 %
01.05.2026 04:58 10,8 °C 8,9 °C 5,6 °C 64 % 1026,5 hPa 0,0 l/m² 0 min 0 W/m² 0,0 km/h (0 Bft) 100,00 %
01.05.2026 05:00 10,8 °C 8,3 °C 5,6 °C 64 % 1026,5 hPa 0,0 l/m² 0 min 0 W/m² 6,4 km/h (2 Bft) 100,00 %
01.05.2026 05:02 10,6 °C 8,9 °C 5,6 °C 64 % 1026,5 hPa 0,0 l/m² 0 min 0 W/m² 12,9 km/h (3 Bft) 100,00 %
01.05.2026 05:04 10,6 °C 8,9 °C 5,6 °C 64 % 1026,5 hPa 0,0 l/m² 0 min 0 W/m² 3,2 km/h (1 Bft) 97,83 %
01.05.2026 05:06 10,5 °C 8,9 °C 5,6 °C 65 % 1026,5 hPa 0,0 l/m² 0 min 0 W/m² 3,2 km/h (1 Bft) 97,87 %
01.05.2026 05:08 10,4 °C 8,9 °C 5,6 °C 65 % 1026,5 hPa 0,0 l/m² 0 min 0 W/m² 3,2 km/h (1 Bft) 97,87 %
01.05.2026 05:10 10,4 °C 8,9 °C 5,6 °C 65 % 1026,5 hPa 0,0 l/m² 0 min 0 W/m² 3,2 km/h (1 Bft) 97,87 %
01.05.2026 05:12 10,3 °C 8,3 °C 5,6 °C 65 % 1026,5 hPa 0,0 l/m² 0 min 0 W/m² 3,2 km/h (1 Bft) 97,87 %
01.05.2026 05:14 10,3 °C 8,3 °C 5,6 °C 65 % 1026,5 hPa 0,0 l/m² 0 min 0 W/m² 3,2 km/h (1 Bft) 97,87 %
01.05.2026 05:16 10,2 °C 8,3 °C 5,6 °C 66 % 1026,4 hPa 0,0 l/m² 0 min 0 W/m² 3,2 km/h (1 Bft) 97,87 %
01.05.2026 05:18 10,2 °C 8,3 °C 5,6 °C 66 % 1026,5 hPa 0,0 l/m² 0 min 0 W/m² 3,2 km/h (1 Bft) 93,62 %
01.05.2026 05:20 10,1 °C 8,9 °C 5,6 °C 66 % 1026,4 hPa 0,0 l/m² 0 min 0 W/m² 6,4 km/h (2 Bft) 97,87 %
01.05.2026 05:22 10,1 °C 8,9 °C 5,6 °C 66 % 1026,5 hPa 0,0 l/m² 0 min 0 W/m² 6,4 km/h (2 Bft) 95,74 %
01.05.2026 05:24 10,1 °C 8,9 °C 5,6 °C 65 % 1026,4 hPa 0,0 l/m² 0 min 0 W/m² 3,2 km/h (1 Bft) 97,87 %
01.05.2026 05:26 10,0 °C 8,9 °C 5,6 °C 66 % 1026,4 hPa 0,0 l/m² 0 min 0 W/m² 6,4 km/h (2 Bft) 98,00 %
01.05.2026 05:28 10,0 °C 8,9 °C 6,1 °C 66 % 1026,4 hPa 0,0 l/m² 0 min 0 W/m² 3,2 km/h (1 Bft) 97,87 %
01.05.2026 05:30 10,0 °C 8,9 °C 5,6 °C 66 % 1026,4 hPa 0,0 l/m² 0 min 0 W/m² 3,2 km/h (1 Bft) 97,62 %
01.05.2026 05:32 9,9 °C 8,9 °C 5,6 °C 66 % 1026,4 hPa 0,0 l/m² 0 min 0 W/m² 3,2 km/h (1 Bft) 97,87 %
01.05.2026 05:34 9,9 °C 8,9 °C 5,6 °C 66 % 1026,4 hPa 0,0 l/m² 0 min 0 W/m² 3,2 km/h (1 Bft) 95,74 %
01.05.2026 05:36 9,9 °C 8,9 °C 5,6 °C 65 % 1026,4 hPa 0,0 l/m² 0 min 0 W/m² 3,2 km/h (1 Bft) 100,00 %
01.05.2026 05:38 9,9 °C 8,9 °C 5,6 °C 66 % 1026,4 hPa 0,0 l/m² 0 min 0 W/m² 6,4 km/h (2 Bft) 100,00 %
01.05.2026 05:40 9,9 °C 8,9 °C 5,6 °C 65 % 1026,3 hPa 0,0 l/m² 0 min 0 W/m² 3,2 km/h (1 Bft) 97,37 %
01.05.2026 05:42 9,8 °C 8,9 °C 5,6 °C 66 % 1026,3 hPa 0,0 l/m² 0 min 0 W/m² 3,2 km/h (1 Bft) 100,00 %
01.05.2026 05:44 9,8 °C 8,9 °C 5,6 °C 65 % 1026,4 hPa 0,0 l/m² 0 min 0 W/m² 6,4 km/h (2 Bft) 98,00 %
01.05.2026 05:46 9,8 °C 8,3 °C 5,6 °C 66 % 1026,4 hPa 0,0 l/m² 0 min 0 W/m² 6,4 km/h (2 Bft) 97,87 %
01.05.2026 05:48 9,8 °C 8,3 °C 5,6 °C 66 % 1026,4 hPa 0,0 l/m² 0 min 0 W/m² 3,2 km/h (1 Bft) 97,87 %
01.05.2026 05:50 9,8 °C 8,3 °C 5,6 °C 66 % 1026,3 hPa 0,0 l/m² 0 min 0 W/m² 3,2 km/h (1 Bft) 97,87 %
01.05.2026 05:52 9,7 °C 8,3 °C 5,6 °C 66 % 1026,4 hPa 0,0 l/m² 0 min 0 W/m² 0,0 km/h (0 Bft) 95,92 %
01.05.2026 05:54 9,7 °C 8,3 °C 5,6 °C 66 % 1026,4 hPa 0,0 l/m² 0 min 0 W/m² 3,2 km/h (1 Bft) 95,74 %
01.05.2026 05:56 9,7 °C 8,3 °C 5,0 °C 66 % 1026,4 hPa 0,0 l/m² 0 min 0 W/m² 3,2 km/h (1 Bft) 95,74 %
01.05.2026 05:58 9,7 °C 8,3 °C 5,0 °C 67 % 1026,3 hPa 0,0 l/m² 0 min 0 W/m² 3,2 km/h (1 Bft) 95,74 %
01.05.2026 06:00 9,6 °C 8,3 °C 5,0 °C 67 % 1026,3 hPa 0,0 l/m² 0 min 0 W/m² 3,2 km/h (1 Bft) 97,56 %
01.05.2026 06:02 9,6 °C 8,3 °C 5,0 °C 67 % 1026,3 hPa 0,0 l/m² 0 min 0 W/m² 3,2 km/h (1 Bft) 98,00 %
01.05.2026 06:04 9,6 °C 8,3 °C 5,0 °C 67 % 1026,3 hPa 0,0 l/m² 0 min 0 W/m² 3,2 km/h (1 Bft) 98,11 %
01.05.2026 06:06 9,5 °C 8,3 °C 5,0 °C 67 % 1026,3 hPa 0,0 l/m² 0 min 0 W/m² 3,2 km/h (1 Bft) 97,67 %
01.05.2026 06:08 9,5 °C 8,3 °C 5,0 °C 67 % 1026,3 hPa 0,0 l/m² 0 min 0 W/m² 6,4 km/h (2 Bft) 97,83 %
01.05.2026 06:10 9,4 °C 8,3 °C 5,6 °C 67 % 1026,3 hPa 0,0 l/m² 0 min 0 W/m² 3,2 km/h (1 Bft) 95,74 %
01.05.2026 06:12 9,4 °C 8,3 °C 5,6 °C 67 % 1026,4 hPa 0,0 l/m² 0 min 5 W/m² 3,2 km/h (1 Bft) 97,87 %
01.05.2026 06:14 9,4 °C 8,3 °C 5,6 °C 67 % 1026,4 hPa 0,0 l/m² 0 min 5 W/m² 3,2 km/h (1 Bft) 95,74 %
01.05.2026 06:16 9,4 °C 8,3 °C 5,6 °C 67 % 1026,4 hPa 0,0 l/m² 0 min 5 W/m² 3,2 km/h (1 Bft) 97,87 %
01.05.2026 06:18 9,4 °C 8,3 °C 5,6 °C 67 % 1026,4 hPa 0,0 l/m² 0 min 5 W/m² 3,2 km/h (1 Bft) 97,87 %
01.05.2026 06:20 9,4 °C 8,9 °C 5,6 °C 67 % 1026,4 hPa 0,0 l/m² 0 min 7 W/m² 3,2 km/h (1 Bft) 95,74 %
01.05.2026 06:22 9,4 °C 8,9 °C 5,6 °C 67 % 1026,5 hPa 0,0 l/m² 0 min 7 W/m² 6,4 km/h (2 Bft) 96,00 %
01.05.2026 06:24 9,4 °C 8,9 °C 5,6 °C 67 % 1026,4 hPa 0,0 l/m² 0 min 7 W/m² 6,4 km/h (2 Bft) 95,65 %
01.05.2026 06:26 9,5 °C 8,9 °C 5,6 °C 66 % 1026,4 hPa 0,0 l/m² 0 min 8 W/m² 6,4 km/h (2 Bft) 97,87 %
01.05.2026 06:28 9,6 °C 8,9 °C 5,6 °C 66 % 1026,5 hPa 0,0 l/m² 0 min 9 W/m² 6,4 km/h (2 Bft) 95,74 %
01.05.2026 06:30 9,6 °C 8,9 °C 5,6 °C 67 % 1026,4 hPa 0,0 l/m² 0 min 9 W/m² 3,2 km/h (1 Bft) 93,62 %
01.05.2026 06:32 9,6 °C 8,9 °C 5,6 °C 66 % 1026,5 hPa 0,0 l/m² 0 min 10 W/m² 6,4 km/h (2 Bft) 95,74 %
01.05.2026 06:34 9,6 °C 8,9 °C 5,6 °C 66 % 1026,5 hPa 0,0 l/m² 0 min 11 W/m² 6,4 km/h (2 Bft) 94,74 %
01.05.2026 06:36 9,6 °C 8,9 °C 5,6 °C 66 % 1026,6 hPa 0,0 l/m² 0 min 11 W/m² 6,4 km/h (2 Bft) 93,62 %
01.05.2026 06:38 9,7 °C 8,9 °C 5,6 °C 66 % 1026,6 hPa 0,0 l/m² 0 min 11 W/m² 3,2 km/h (1 Bft) 95,74 %
01.05.2026 06:40 9,7 °C 8,9 °C 5,6 °C 66 % 1026,6 hPa 0,0 l/m² 0 min 12 W/m² 6,4 km/h (2 Bft) 94,00 %
01.05.2026 06:42 9,7 °C 8,9 °C 6,1 °C 66 % 1026,5 hPa 0,0 l/m² 0 min 12 W/m² 6,4 km/h (2 Bft) 97,83 %
01.05.2026 06:44 9,7 °C 8,9 °C 6,1 °C 66 % 1026,6 hPa 0,0 l/m² 0 min 12 W/m² 3,2 km/h (1 Bft) 93,62 %
01.05.2026 06:46 9,7 °C 8,9 °C 6,1 °C 66 % 1026,5 hPa 0,0 l/m² 0 min 13 W/m² 3,2 km/h (1 Bft) 95,74 %
01.05.2026 06:48 9,8 °C 8,9 °C 6,1 °C 66 % 1026,5 hPa 0,0 l/m² 0 min 14 W/m² 9,7 km/h (2 Bft) 94,34 %
01.05.2026 06:50 9,8 °C 9,4 °C 6,1 °C 65 % 1026,5 hPa 0,0 l/m² 0 min 14 W/m² 6,4 km/h (2 Bft) 95,12 %
01.05.2026 06:52 9,8 °C 9,4 °C 6,1 °C 65 % 1026,5 hPa 0,0 l/m² 0 min 14 W/m² 12,9 km/h (3 Bft) 93,62 %
01.05.2026 06:54 9,9 °C 9,4 °C 6,1 °C 65 % 1026,5 hPa 0,0 l/m² 0 min 15 W/m² 12,9 km/h (3 Bft) 95,74 %
01.05.2026 06:56 9,9 °C 9,4 °C 6,1 °C 65 % 1026,6 hPa 0,0 l/m² 0 min 16 W/m² 6,4 km/h (2 Bft) 93,62 %
01.05.2026 06:58 9,9 °C 9,4 °C 6,1 °C 65 % 1026,6 hPa 0,0 l/m² 0 min 16 W/m² 6,4 km/h (2 Bft) 93,48 %
01.05.2026 07:00 9,9 °C 9,4 °C 6,1 °C 65 % 1026,7 hPa 0,0 l/m² 0 min 16 W/m² 6,4 km/h (2 Bft) 97,87 %
01.05.2026 07:02 10,0 °C 9,4 °C 6,1 °C 65 % 1026,6 hPa 0,0 l/m² 0 min 17 W/m² 6,4 km/h (2 Bft) 95,74 %
01.05.2026 07:04 10,1 °C 9,4 °C 6,1 °C 65 % 1026,6 hPa 0,0 l/m² 0 min 18 W/m² 6,4 km/h (2 Bft) 96,00 %
01.05.2026 07:06 10,1 °C 9,4 °C 6,1 °C 65 % 1026,7 hPa 0,0 l/m² 0 min 18 W/m² 6,4 km/h (2 Bft) 98,00 %
01.05.2026 07:08 10,1 °C 9,4 °C 6,1 °C 64 % 1026,7 hPa 0,0 l/m² 0 min 18 W/m² 6,4 km/h (2 Bft) 97,37 %
01.05.2026 07:10 10,2 °C 9,4 °C 6,1 °C 65 % 1026,7 hPa 0,0 l/m² 0 min 18 W/m² 6,4 km/h (2 Bft) 97,87 %
01.05.2026 07:12 10,2 °C 9,4 °C 6,1 °C 64 % 1026,7 hPa 0,0 l/m² 0 min 19 W/m² 6,4 km/h (2 Bft) 100,00 %
01.05.2026 07:14 10,3 °C 10,0 °C 6,7 °C 64 % 1026,7 hPa 0,0 l/m² 0 min 19 W/m² 9,7 km/h (2 Bft) 100,00 %
01.05.2026 07:16 10,3 °C 10,0 °C 6,7 °C 64 % 1026,6 hPa 0,0 l/m² 0 min 19 W/m² 6,4 km/h (2 Bft) 98,00 %
01.05.2026 07:18 10,3 °C 10,0 °C 6,7 °C 64 % 1026,7 hPa 0,0 l/m² 0 min 19 W/m² 6,4 km/h (2 Bft) 100,00 %
01.05.2026 07:20 10,4 °C 10,0 °C 6,7 °C 64 % 1026,6 hPa 0,0 l/m² 0 min 20 W/m² 3,2 km/h (1 Bft) 100,00 %
01.05.2026 07:22 10,4 °C 10,0 °C 6,7 °C 64 % 1026,7 hPa 0,0 l/m² 0 min 21 W/m² 9,7 km/h (2 Bft) 100,00 %
01.05.2026 07:24 10,5 °C 10,0 °C 6,7 °C 64 % 1026,6 hPa 0,0 l/m² 0 min 21 W/m² 6,4 km/h (2 Bft) 100,00 %
01.05.2026 07:26 10,6 °C 10,0 °C 6,7 °C 64 % 1026,7 hPa 0,0 l/m² 0 min 21 W/m² 9,7 km/h (2 Bft) 100,00 %
01.05.2026 07:28 10,6 °C 10,0 °C 6,7 °C 63 % 1026,7 hPa 0,0 l/m² 0 min 21 W/m² 9,7 km/h (2 Bft) 100,00 %
01.05.2026 07:30 10,7 °C 10,0 °C 6,7 °C 63 % 1026,7 hPa 0,0 l/m² 0 min 21 W/m² 6,4 km/h (2 Bft) 100,00 %
01.05.2026 07:32 10,7 °C 10,6 °C 6,7 °C 63 % 1026,7 hPa 0,0 l/m² 0 min 23 W/m² 6,4 km/h (2 Bft) 97,87 %
01.05.2026 07:34 10,8 °C 10,6 °C 6,7 °C 63 % 1026,7 hPa 0,0 l/m² 0 min 23 W/m² 9,7 km/h (2 Bft) 100,00 %
01.05.2026 07:36 10,8 °C 10,6 °C 6,7 °C 63 % 1026,7 hPa 0,0 l/m² 0 min 23 W/m² 9,7 km/h (2 Bft) 100,00 %
01.05.2026 07:38 10,9 °C 10,6 °C 7,2 °C 62 % 1026,7 hPa 0,0 l/m² 0 min 23 W/m² 12,9 km/h (3 Bft) 100,00 %
01.05.2026 07:40 11,0 °C 10,6 °C 7,2 °C 63 % 1026,7 hPa 0,0 l/m² 0 min 23 W/m² 6,4 km/h (2 Bft) 100,00 %
01.05.2026 07:42 11,1 °C 10,6 °C 7,2 °C 63 % 1026,7 hPa 0,0 l/m² 0 min 24 W/m² 16,1 km/h (3 Bft) 97,87 %
01.05.2026 07:44 11,1 °C 10,6 °C 7,2 °C 62 % 1026,7 hPa 0,0 l/m² 0 min 25 W/m² 16,1 km/h (3 Bft) 100,00 %
01.05.2026 07:46 11,2 °C 11,1 °C 7,2 °C 62 % 1026,7 hPa 0,0 l/m² 0 min 25 W/m² 16,1 km/h (3 Bft) 97,87 %
01.05.2026 07:48 11,2 °C 11,1 °C 7,2 °C 61 % 1026,7 hPa 0,0 l/m² 0 min 25 W/m² 6,4 km/h (2 Bft) 100,00 %
01.05.2026 07:50 11,3 °C 11,1 °C 7,2 °C 61 % 1026,7 hPa 0,0 l/m² 0 min 26 W/m² 12,9 km/h (3 Bft) 97,87 %
01.05.2026 07:52 11,4 °C 11,1 °C 7,2 °C 61 % 1026,7 hPa 0,0 l/m² 0 min 26 W/m² 12,9 km/h (3 Bft) 100,00 %
01.05.2026 07:54 11,4 °C 11,1 °C 7,2 °C 61 % 1026,7 hPa 0,0 l/m² 0 min 26 W/m² 19,3 km/h (3 Bft) 97,87 %
01.05.2026 07:56 11,5 °C 11,1 °C 7,2 °C 60 % 1026,7 hPa 0,0 l/m² 0 min 26 W/m² 16,1 km/h (3 Bft) 100,00 %
01.05.2026 07:58 11,6 °C 11,1 °C 7,8 °C 60 % 1026,8 hPa 0,0 l/m² 0 min 26 W/m² 9,7 km/h (2 Bft) 100,00 %
01.05.2026 08:00 11,7 °C 11,1 °C 7,8 °C 60 % 1026,8 hPa 0,0 l/m² 0 min 28 W/m² 12,9 km/h (3 Bft) 100,00 %
01.05.2026 08:02 11,7 °C 11,7 °C 7,8 °C 60 % 1026,8 hPa 0,0 l/m² 0 min 28 W/m² 12,9 km/h (3 Bft) 97,87 %
01.05.2026 08:04 11,8 °C 11,7 °C 7,8 °C 60 % 1026,8 hPa 0,0 l/m² 0 min 28 W/m² 9,7 km/h (2 Bft) 100,00 %
01.05.2026 08:06 11,9 °C 11,7 °C 7,8 °C 59 % 1026,8 hPa 0,0 l/m² 0 min 28 W/m² 9,7 km/h (2 Bft) 100,00 %
01.05.2026 08:08 11,9 °C 11,7 °C 7,8 °C 58 % 1026,8 hPa 0,0 l/m² 0 min 28 W/m² 12,9 km/h (3 Bft) 100,00 %
01.05.2026 08:10 12,0 °C 11,7 °C 7,8 °C 57 % 1026,7 hPa 0,0 l/m² 0 min 30 W/m² 12,9 km/h (3 Bft) 100,00 %
01.05.2026 08:12 12,1 °C 11,7 °C 7,8 °C 57 % 1026,8 hPa 0,0 l/m² 0 min 30 W/m² 6,4 km/h (2 Bft) 100,00 %
01.05.2026 08:14 12,1 °C 12,2 °C 7,8 °C 57 % 1026,8 hPa 0,0 l/m² 0 min 32 W/m² 12,9 km/h (3 Bft) 100,00 %
01.05.2026 08:16 12,2 °C 12,2 °C 8,3 °C 57 % 1026,8 hPa 0,0 l/m² 0 min 32 W/m² 16,1 km/h (3 Bft) 100,00 %
01.05.2026 08:18 12,3 °C 12,2 °C 8,3 °C 56 % 1026,8 hPa 0,0 l/m² 0 min 32 W/m² 12,9 km/h (3 Bft) 100,00 %
01.05.2026 08:20 12,4 °C 12,2 °C 8,3 °C 56 % 1026,8 hPa 0,0 l/m² 0 min 32 W/m² 6,4 km/h (2 Bft) 100,00 %
01.05.2026 08:22 12,4 °C 12,2 °C 8,3 °C 56 % 1026,8 hPa 0,0 l/m² 0 min 35 W/m² 16,1 km/h (3 Bft) 98,00 %
01.05.2026 08:24 12,6 °C 12,2 °C 8,3 °C 56 % 1026,8 hPa 0,0 l/m² 0 min 104 W/m² 6,4 km/h (2 Bft) 97,87 %
01.05.2026 08:26 12,6 °C 12,2 °C 8,3 °C 55 % 1026,8 hPa 0,0 l/m² 2 min 222 W/m² 16,1 km/h (3 Bft) 100,00 %
01.05.2026 08:28 12,7 °C 12,2 °C 8,3 °C 55 % 1026,8 hPa 0,0 l/m² 2 min 324 W/m² 16,1 km/h (3 Bft) 100,00 %
01.05.2026 08:30 12,8 °C 12,8 °C 8,3 °C 55 % 1026,8 hPa 0,0 l/m² 2 min 230 W/m² 19,3 km/h (3 Bft) 96,00 %
01.05.2026 08:32 12,8 °C 12,8 °C 8,9 °C 54 % 1026,8 hPa 0,0 l/m² 0 min 68 W/m² 19,3 km/h (3 Bft) 100,00 %
01.05.2026 08:34 12,9 °C 12,8 °C 8,9 °C 53 % 1026,9 hPa 0,0 l/m² 0 min 44 W/m² 19,3 km/h (3 Bft) 97,87 %
01.05.2026 08:36 13,0 °C 12,8 °C 8,9 °C 53 % 1026,8 hPa 0,0 l/m² 0 min 98 W/m² 12,9 km/h (3 Bft) 96,15 %
01.05.2026 08:38 13,1 °C 12,8 °C 8,9 °C 54 % 1026,8 hPa 0,0 l/m² 2 min 331 W/m² 16,1 km/h (3 Bft) 96,00 %
01.05.2026 08:40 13,2 °C 12,8 °C 8,9 °C 53 % 1026,9 hPa 0,0 l/m² 2 min 360 W/m² 12,9 km/h (3 Bft) 97,87 %
01.05.2026 08:42 13,3 °C 13,3 °C 8,9 °C 53 % 1026,9 hPa 0,0 l/m² 2 min 365 W/m² 9,7 km/h (2 Bft) 97,14 %
01.05.2026 08:44 13,3 °C 15,0 °C 8,9 °C 52 % 1026,9 hPa 0,0 l/m² 2 min 372 W/m² 12,9 km/h (3 Bft) 98,31 %
01.05.2026 08:46 13,5 °C 16,7 °C 8,9 °C 52 % 1026,8 hPa 0,0 l/m² 2 min 378 W/m² 25,7 km/h (4 Bft) 95,74 %
01.05.2026 08:48 13,7 °C 17,8 °C 8,9 °C 52 % 1026,8 hPa 0,0 l/m² 2 min 383 W/m² 12,9 km/h (3 Bft) 94,74 %
01.05.2026 08:50 13,8 °C 18,3 °C 9,4 °C 51 % 1026,8 hPa 0,0 l/m² 2 min 388 W/m² 16,1 km/h (3 Bft) 95,74 %
01.05.2026 08:52 13,9 °C 18,9 °C 9,4 °C 51 % 1026,9 hPa 0,0 l/m² 2 min 395 W/m² 16,1 km/h (3 Bft) 91,30 %
01.05.2026 08:54 14,1 °C 18,9 °C 9,4 °C 51 % 1026,9 hPa 0,0 l/m² 2 min 400 W/m² 25,7 km/h (4 Bft) 93,62 %
01.05.2026 08:56 14,3 °C 18,9 °C 9,4 °C 49 % 1026,8 hPa 0,0 l/m² 2 min 406 W/m² 22,5 km/h (4 Bft) 93,62 %
01.05.2026 08:58 14,3 °C 20,0 °C 10,0 °C 49 % 1026,8 hPa 0,0 l/m² 2 min 412 W/m² 12,9 km/h (3 Bft) 95,74 %
01.05.2026 09:00 14,6 °C 20,0 °C 10,6 °C 49 % 1026,8 hPa 0,0 l/m² 2 min 416 W/m² 19,3 km/h (3 Bft) 95,74 %
01.05.2026 09:02 14,7 °C 20,0 °C 11,1 °C 49 % 1026,8 hPa 0,0 l/m² 2 min 420 W/m² 16,1 km/h (3 Bft) 93,62 %
01.05.2026 09:04 14,8 °C 20,0 °C 12,2 °C 49 % 1026,8 hPa 0,0 l/m² 2 min 428 W/m² 22,5 km/h (4 Bft) 96,00 %
01.05.2026 09:06 14,9 °C 20,6 °C 12,2 °C 48 % 1026,8 hPa 0,0 l/m² 2 min 434 W/m² 19,3 km/h (3 Bft) 93,62 %
01.05.2026 09:08 15,0 °C 20,6 °C 12,8 °C 47 % 1026,8 hPa 0,0 l/m² 2 min 440 W/m² 16,1 km/h (3 Bft) 92,86 %
01.05.2026 09:10 15,1 °C 21,1 °C 13,3 °C 48 % 1026,8 hPa 0,0 l/m² 2 min 446 W/m² 12,9 km/h (3 Bft) 93,88 %
01.05.2026 09:12 15,2 °C 20,6 °C 13,3 °C 46 % 1026,9 hPa 0,0 l/m² 2 min 450 W/m² 25,7 km/h (4 Bft) 95,74 %
01.05.2026 09:14 15,3 °C 20,6 °C 13,3 °C 46 % 1026,9 hPa 0,0 l/m² 2 min 457 W/m² 19,3 km/h (3 Bft) 97,87 %
01.05.2026 09:16 15,4 °C 20,6 °C 13,3 °C 46 % 1026,9 hPa 0,0 l/m² 2 min 463 W/m² 22,5 km/h (4 Bft) 93,62 %
01.05.2026 09:18 15,4 °C 21,1 °C 13,9 °C 46 % 1026,9 hPa 0,0 l/m² 2 min 468 W/m² 16,1 km/h (3 Bft) 95,74 %
01.05.2026 09:20 15,6 °C 21,1 °C 13,9 °C 46 % 1026,9 hPa 0,0 l/m² 2 min 474 W/m² 19,3 km/h (3 Bft) 94,00 %
01.05.2026 09:22 15,7 °C 21,1 °C 14,4 °C 46 % 1026,9 hPa 0,0 l/m² 2 min 479 W/m² 19,3 km/h (3 Bft) 95,74 %
01.05.2026 09:24 15,7 °C 21,1 °C 14,4 °C 46 % 1026,9 hPa 0,0 l/m² 2 min 484 W/m² 19,3 km/h (3 Bft) 93,88 %
01.05.2026 09:26 15,8 °C 21,7 °C 14,4 °C 46 % 1026,9 hPa 0,0 l/m² 2 min 490 W/m² 16,1 km/h (3 Bft) 97,87 %
01.05.2026 09:28 15,9 °C 21,7 °C 15,0 °C 45 % 1026,8 hPa 0,0 l/m² 2 min 496 W/m² 12,9 km/h (3 Bft) 95,74 %
01.05.2026 09:30 16,0 °C 21,7 °C 15,0 °C 45 % 1026,9 hPa 0,0 l/m² 2 min 501 W/m² 16,1 km/h (3 Bft) 97,87 %
01.05.2026 09:32 16,1 °C 21,7 °C 15,0 °C 45 % 1026,9 hPa 0,0 l/m² 2 min 506 W/m² 19,3 km/h (3 Bft) 97,37 %
01.05.2026 09:34 16,2 °C 21,1 °C 15,0 °C 45 % 1026,9 hPa 0,0 l/m² 2 min 512 W/m² 19,3 km/h (3 Bft) 97,87 %
01.05.2026 09:36 16,3 °C 21,1 °C 15,0 °C 45 % 1026,9 hPa 0,0 l/m² 2 min 517 W/m² 19,3 km/h (3 Bft) 97,87 %
01.05.2026 09:38 16,3 °C 21,1 °C 15,0 °C 45 % 1026,9 hPa 0,0 l/m² 2 min 522 W/m² 19,3 km/h (3 Bft) 95,74 %
01.05.2026 09:40 16,4 °C 21,7 °C 15,6 °C 44 % 1026,9 hPa 0,0 l/m² 2 min 528 W/m² 19,3 km/h (3 Bft) 97,87 %
01.05.2026 09:42 16,5 °C 21,7 °C 15,6 °C 45 % 1026,9 hPa 0,0 l/m² 2 min 532 W/m² 12,9 km/h (3 Bft) 98,08 %
01.05.2026 09:44 16,6 °C 21,7 °C 15,0 °C 44 % 1026,9 hPa 0,0 l/m² 2 min 539 W/m² 19,3 km/h (3 Bft) 91,49 %
01.05.2026 09:46 16,7 °C 21,1 °C 14,4 °C 43 % 1026,9 hPa 0,0 l/m² 2 min 543 W/m² 19,3 km/h (3 Bft) 98,00 %
01.05.2026 09:48 16,7 °C 21,1 °C 13,9 °C 42 % 1026,9 hPa 0,0 l/m² 2 min 549 W/m² 19,3 km/h (3 Bft) 97,56 %
01.05.2026 09:50 16,8 °C 20,6 °C 13,3 °C 42 % 1026,9 hPa 0,0 l/m² 2 min 554 W/m² 25,7 km/h (4 Bft) 98,00 %
01.05.2026 09:52 16,8 °C 21,1 °C 13,3 °C 42 % 1026,8 hPa 0,0 l/m² 2 min 559 W/m² 22,5 km/h (4 Bft) 96,15 %
01.05.2026 09:54 16,9 °C 21,7 °C 13,3 °C 42 % 1026,9 hPa 0,0 l/m² 2 min 565 W/m² 19,3 km/h (3 Bft) 98,39 %
01.05.2026 09:56 17,0 °C 21,7 °C 12,8 °C 42 % 1026,9 hPa 0,0 l/m² 2 min 571 W/m² 19,3 km/h (3 Bft) 96,00 %
01.05.2026 09:58 17,1 °C 20,6 °C 12,8 °C 41 % 1026,9 hPa 0,0 l/m² 2 min 577 W/m² 29,0 km/h (5 Bft) 97,14 %
01.05.2026 10:00 17,1 °C 20,6 °C 12,2 °C 41 % 1026,9 hPa 0,0 l/m² 2 min 580 W/m² 25,7 km/h (4 Bft) 96,88 %
01.05.2026 10:02 17,2 °C 20,6 °C 12,2 °C 41 % 1026,9 hPa 0,0 l/m² 2 min 585 W/m² 29,0 km/h (5 Bft) 95,74 %
01.05.2026 10:04 17,2 °C 20,0 °C 12,2 °C 41 % 1026,9 hPa 0,0 l/m² 2 min 591 W/m² 29,0 km/h (5 Bft) 97,14 %
01.05.2026 10:06 17,2 °C 20,0 °C 12,2 °C 41 % 1026,8 hPa 0,0 l/m² 2 min 597 W/m² 19,3 km/h (3 Bft) 97,87 %
01.05.2026 10:08 17,2 °C 20,0 °C 12,2 °C 40 % 1026,9 hPa 0,0 l/m² 2 min 602 W/m² 25,7 km/h (4 Bft) 98,00 %
01.05.2026 10:10 17,2 °C 19,4 °C 12,2 °C 41 % 1026,8 hPa 0,0 l/m² 2 min 606 W/m² 19,3 km/h (3 Bft) 97,87 %
01.05.2026 10:12 17,3 °C 19,4 °C 12,2 °C 41 % 1026,9 hPa 0,0 l/m² 2 min 611 W/m² 22,5 km/h (4 Bft) 97,87 %
01.05.2026 10:14 17,3 °C 19,4 °C 12,8 °C 41 % 1026,9 hPa 0,0 l/m² 2 min 615 W/m² 22,5 km/h (4 Bft) 95,74 %
01.05.2026 10:16 17,4 °C 18,9 °C 12,8 °C 40 % 1026,9 hPa 0,0 l/m² 2 min 621 W/m² 32,2 km/h (5 Bft) 98,11 %
01.05.2026 10:18 17,4 °C 18,9 °C 12,8 °C 40 % 1026,8 hPa 0,0 l/m² 2 min 625 W/m² 22,5 km/h (4 Bft) 97,87 %
01.05.2026 10:20 17,5 °C 19,4 °C 12,8 °C 41 % 1026,8 hPa 0,0 l/m² 2 min 630 W/m² 32,2 km/h (5 Bft) 95,74 %
01.05.2026 10:22 17,6 °C 19,4 °C 12,8 °C 40 % 1026,8 hPa 0,0 l/m² 2 min 634 W/m² 25,7 km/h (4 Bft) 95,74 %
01.05.2026 10:24 17,6 °C 19,4 °C 13,3 °C 40 % 1026,8 hPa 0,0 l/m² 2 min 640 W/m² 35,4 km/h (5 Bft) 97,87 %
01.05.2026 10:26 17,7 °C 18,9 °C 13,9 °C 39 % 1026,8 hPa 0,0 l/m² 2 min 644 W/m² 25,7 km/h (4 Bft) 100,00 %
01.05.2026 10:28 17,7 °C 18,9 °C 14,4 °C 39 % 1026,8 hPa 0,0 l/m² 2 min 648 W/m² 22,5 km/h (4 Bft) 94,34 %
01.05.2026 10:30 17,8 °C 19,4 °C 15,6 °C 39 % 1026,8 hPa 0,0 l/m² 2 min 653 W/m² 25,7 km/h (4 Bft) 97,87 %
01.05.2026 10:32 17,8 °C 19,4 °C 15,6 °C 39 % 1026,8 hPa 0,0 l/m² 2 min 658 W/m² 29,0 km/h (5 Bft) 97,83 %
01.05.2026 10:34 17,9 °C 21,1 °C 16,1 °C 39 % 1026,7 hPa 0,0 l/m² 2 min 663 W/m² 22,5 km/h (4 Bft) 97,87 %
01.05.2026 10:36 18,0 °C 21,1 °C 16,1 °C 39 % 1026,7 hPa 0,0 l/m² 2 min 666 W/m² 22,5 km/h (4 Bft) 97,56 %
01.05.2026 10:38 18,1 °C 20,6 °C 16,1 °C 39 % 1026,8 hPa 0,0 l/m² 2 min 671 W/m² 29,0 km/h (5 Bft) 96,23 %
01.05.2026 10:40 18,2 °C 20,0 °C 15,0 °C 38 % 1026,8 hPa 0,0 l/m² 2 min 676 W/m² 32,2 km/h (5 Bft) 95,74 %
01.05.2026 10:42 18,2 °C 20,0 °C 15,0 °C 38 % 1026,7 hPa 0,0 l/m² 2 min 680 W/m² 29,0 km/h (5 Bft) 94,00 %
01.05.2026 10:44 18,3 °C 20,0 °C 15,0 °C 38 % 1026,7 hPa 0,0 l/m² 2 min 683 W/m² 25,7 km/h (4 Bft) 93,62 %
01.05.2026 10:46 18,3 °C 20,0 °C 15,0 °C 37 % 1026,7 hPa 0,0 l/m² 2 min 688 W/m² 25,7 km/h (4 Bft) 97,37 %
01.05.2026 10:48 18,3 °C 20,0 °C 15,6 °C 38 % 1026,7 hPa 0,0 l/m² 2 min 693 W/m² 45,1 km/h (6 Bft) 94,55 %
01.05.2026 10:50 18,4 °C 19,4 °C 15,0 °C 37 % 1026,7 hPa 0,0 l/m² 2 min 697 W/m² 45,1 km/h (6 Bft) 95,74 %
01.05.2026 10:52 18,4 °C 20,0 °C 14,4 °C 37 % 1026,5 hPa 0,0 l/m² 2 min 700 W/m² 29,0 km/h (5 Bft) 93,62 %
01.05.2026 10:54 18,5 °C 20,0 °C 14,4 °C 37 % 1026,7 hPa 0,0 l/m² 2 min 705 W/m² 25,7 km/h (4 Bft) 97,87 %
01.05.2026 10:56 18,5 °C 20,0 °C 14,4 °C 37 % 1026,6 hPa 0,0 l/m² 2 min 710 W/m² 35,4 km/h (5 Bft) 95,74 %
01.05.2026 10:58 18,6 °C 20,6 °C 13,9 °C 37 % 1026,5 hPa 0,0 l/m² 2 min 712 W/m² 29,0 km/h (5 Bft) 95,74 %
01.05.2026 11:00 18,6 °C 20,6 °C 13,9 °C 37 % 1026,6 hPa 0,0 l/m² 2 min 716 W/m² 25,7 km/h (4 Bft) 94,29 %
01.05.2026 11:02 18,6 °C 20,6 °C 13,9 °C 36 % 1026,7 hPa 0,0 l/m² 2 min 721 W/m² 38,6 km/h (5 Bft) 96,23 %
01.05.2026 11:04 18,7 °C 20,6 °C 13,9 °C 37 % 1026,5 hPa 0,0 l/m² 2 min 724 W/m² 35,4 km/h (5 Bft) 93,48 %
01.05.2026 11:06 18,7 °C 20,0 °C 13,9 °C 36 % 1026,7 hPa 0,0 l/m² 2 min 727 W/m² 32,2 km/h (5 Bft) 95,74 %
01.05.2026 11:08 18,7 °C 19,4 °C 13,9 °C 37 % 1026,6 hPa 0,0 l/m² 2 min 734 W/m² 32,2 km/h (5 Bft) 95,74 %
01.05.2026 11:10 18,8 °C 20,0 °C 13,9 °C 37 % 1026,5 hPa 0,0 l/m² 2 min 736 W/m² 25,7 km/h (4 Bft) 97,87 %
01.05.2026 11:12 18,8 °C 20,6 °C 14,4 °C 37 % 1026,5 hPa 0,0 l/m² 2 min 740 W/m² 22,5 km/h (4 Bft) 100,00 %
01.05.2026 11:14 18,9 °C 21,7 °C 14,4 °C 37 % 1026,5 hPa 0,0 l/m² 2 min 743 W/m² 32,2 km/h (5 Bft) 100,00 %
01.05.2026 11:16 19,0 °C 21,7 °C 14,4 °C 37 % 1026,4 hPa 0,0 l/m² 2 min 746 W/m² 22,5 km/h (4 Bft) 100,00 %
01.05.2026 11:18 19,1 °C 22,2 °C 15,0 °C 38 % 1026,5 hPa 0,0 l/m² 2 min 750 W/m² 19,3 km/h (3 Bft) 98,00 %
01.05.2026 11:20 19,2 °C 22,2 °C 15,0 °C 37 % 1026,5 hPa 0,0 l/m² 2 min 755 W/m² 29,0 km/h (5 Bft) 97,87 %
01.05.2026 11:22 19,3 °C 21,7 °C 15,0 °C 36 % 1026,5 hPa 0,0 l/m² 2 min 757 W/m² 22,5 km/h (4 Bft) 100,00 %
01.05.2026 11:24 19,3 °C 21,7 °C 15,6 °C 36 % 1026,4 hPa 0,0 l/m² 2 min 761 W/m² 22,5 km/h (4 Bft) 96,00 %
01.05.2026 11:26 19,3 °C 21,7 °C 16,1 °C 37 % 1026,4 hPa 0,0 l/m² 2 min 762 W/m² 38,6 km/h (5 Bft) 95,74 %
01.05.2026 11:28 19,4 °C 21,7 °C 16,1 °C 37 % 1026,4 hPa 0,0 l/m² 2 min 765 W/m² 32,2 km/h (5 Bft) 97,87 %
01.05.2026 11:30 19,4 °C 21,1 °C 16,7 °C 37 % 1026,4 hPa 0,0 l/m² 2 min 769 W/m² 25,7 km/h (4 Bft) 98,00 %
01.05.2026 11:32 19,5 °C 21,1 °C 16,7 °C 37 % 1026,4 hPa 0,0 l/m² 2 min 772 W/m² 35,4 km/h (5 Bft) 97,87 %
01.05.2026 11:34 19,5 °C 21,1 °C 16,7 °C 37 % 1026,3 hPa 0,0 l/m² 2 min 778 W/m² 25,7 km/h (4 Bft) 97,14 %
01.05.2026 11:36 19,6 °C 22,2 °C 16,1 °C 37 % 1026,3 hPa 0,0 l/m² 2 min 781 W/m² 22,5 km/h (4 Bft) 97,87 %
01.05.2026 11:38 19,6 °C 22,2 °C 16,1 °C 36 % 1026,3 hPa 0,0 l/m² 2 min 785 W/m² 29,0 km/h (5 Bft) 97,87 %
01.05.2026 11:40 19,6 °C 22,2 °C 15,6 °C 36 % 1026,2 hPa 0,0 l/m² 2 min 788 W/m² 22,5 km/h (4 Bft) 97,83 %
01.05.2026 11:42 19,6 °C 22,2 °C 15,6 °C 37 % 1026,3 hPa 0,0 l/m² 2 min 789 W/m² 22,5 km/h (4 Bft) 97,87 %
01.05.2026 11:44 19,6 °C 22,2 °C 15,6 °C 36 % 1026,3 hPa 0,0 l/m² 2 min 793 W/m² 19,3 km/h (3 Bft) 97,87 %
01.05.2026 11:46 19,7 °C 22,2 °C 15,6 °C 37 % 1026,2 hPa 0,0 l/m² 2 min 796 W/m² 22,5 km/h (4 Bft) 95,74 %
01.05.2026 11:48 19,7 °C 22,2 °C 15,6 °C 37 % 1026,2 hPa 0,0 l/m² 2 min 799 W/m² 19,3 km/h (3 Bft) 97,87 %
01.05.2026 11:50 19,8 °C 22,8 °C 15,6 °C 37 % 1026,3 hPa 0,0 l/m² 2 min 802 W/m² 16,1 km/h (3 Bft) 98,00 %
01.05.2026 11:52 19,8 °C 22,8 °C 16,1 °C 36 % 1026,3 hPa 0,0 l/m² 2 min 805 W/m² 25,7 km/h (4 Bft) 98,00 %
01.05.2026 11:54 19,8 °C 22,8 °C 16,7 °C 36 % 1026,2 hPa 0,0 l/m² 2 min 808 W/m² 22,5 km/h (4 Bft) 97,87 %
01.05.2026 11:56 19,9 °C 23,9 °C 16,7 °C 37 % 1026,0 hPa 0,0 l/m² 2 min 810 W/m² 29,0 km/h (5 Bft) 97,83 %
01.05.2026 11:58 19,9 °C 24,4 °C 17,2 °C 37 % 1026,1 hPa 0,0 l/m² 2 min 813 W/m² 22,5 km/h (4 Bft) 97,87 %
01.05.2026 12:00 20,0 °C 24,4 °C 17,2 °C 37 % 1026,0 hPa 0,0 l/m² 2 min 815 W/m² 35,4 km/h (5 Bft) 97,87 %
01.05.2026 12:02 20,1 °C 25,0 °C 17,8 °C 37 % 1026,0 hPa 0,0 l/m² 2 min 816 W/m² 19,3 km/h (3 Bft) 100,00 %
01.05.2026 12:04 20,2 °C 25,6 °C 18,9 °C 37 % 1026,1 hPa 0,0 l/m² 2 min 819 W/m² 16,1 km/h (3 Bft) 100,00 %
01.05.2026 12:06 20,3 °C 26,1 °C 19,4 °C 37 % 1026,0 hPa 0,0 l/m² 2 min 822 W/m² 35,4 km/h (5 Bft) 97,92 %
01.05.2026 12:08 20,3 °C 26,1 °C 20,0 °C 37 % 1025,9 hPa 0,0 l/m² 2 min 823 W/m² 19,3 km/h (3 Bft) 100,00 %
01.05.2026 12:10 20,4 °C 26,7 °C 20,6 °C 37 % 1026,0 hPa 0,0 l/m² 2 min 825 W/m² 22,5 km/h (4 Bft) 97,87 %
01.05.2026 12:12 20,6 °C 26,1 °C 20,0 °C 36 % 1025,9 hPa 0,0 l/m² 2 min 830 W/m² 22,5 km/h (4 Bft) 97,83 %
01.05.2026 12:14 20,6 °C 25,6 °C 19,4 °C 35 % 1025,9 hPa 0,0 l/m² 2 min 832 W/m² 22,5 km/h (4 Bft) 97,37 %
01.05.2026 12:16 20,7 °C 26,1 °C 18,9 °C 36 % 1025,9 hPa 0,0 l/m² 2 min 833 W/m² 29,0 km/h (5 Bft) 100,00 %
01.05.2026 12:18 20,7 °C 26,1 °C 18,9 °C 36 % 1025,9 hPa 0,0 l/m² 2 min 838 W/m² 25,7 km/h (4 Bft) 100,00 %
01.05.2026 12:20 20,7 °C 26,7 °C 20,0 °C 36 % 1025,8 hPa 0,0 l/m² 2 min 840 W/m² 22,5 km/h (4 Bft) 100,00 %
01.05.2026 12:22 20,8 °C 27,2 °C 21,1 °C 37 % 1025,8 hPa 0,0 l/m² 2 min 840 W/m² 19,3 km/h (3 Bft) 100,00 %
01.05.2026 12:24 20,9 °C 27,2 °C 21,7 °C 36 % 1025,8 hPa 0,0 l/m² 2 min 843 W/m² 35,4 km/h (5 Bft) 100,00 %
01.05.2026 12:26 20,9 °C 26,7 °C 21,7 °C 35 % 1025,8 hPa 0,0 l/m² 2 min 846 W/m² 38,6 km/h (5 Bft) 97,87 %
01.05.2026 12:28 20,9 °C 26,7 °C 21,7 °C 35 % 1025,7 hPa 0,0 l/m² 2 min 848 W/m² 38,6 km/h (5 Bft) 100,00 %
01.05.2026 12:30 20,9 °C 26,1 °C 22,2 °C 35 % 1025,7 hPa 0,0 l/m² 2 min 851 W/m² 25,7 km/h (4 Bft) 100,00 %
01.05.2026 12:32 20,9 °C 26,1 °C 22,2 °C 35 % 1025,8 hPa 0,0 l/m² 2 min 854 W/m² 29,0 km/h (5 Bft) 100,00 %
01.05.2026 12:34 20,9 °C 26,1 °C 22,2 °C 35 % 1025,8 hPa 0,0 l/m² 2 min 853 W/m² 22,5 km/h (4 Bft) 100,00 %
01.05.2026 12:36 20,9 °C 26,7 °C 22,8 °C 35 % 1025,8 hPa 0,0 l/m² 2 min 855 W/m² 22,5 km/h (4 Bft) 98,00 %
01.05.2026 12:38 21,0 °C 26,7 °C 23,3 °C 35 % 1025,8 hPa 0,0 l/m² 2 min 855 W/m² 25,7 km/h (4 Bft) 100,00 %
01.05.2026 12:40 21,1 °C 27,2 °C 23,3 °C 35 % 1025,7 hPa 0,0 l/m² 2 min 858 W/m² 25,7 km/h (4 Bft) 97,87 %
01.05.2026 12:42 21,1 °C 26,7 °C 22,8 °C 36 % 1025,7 hPa 0,0 l/m² 2 min 859 W/m² 45,1 km/h (6 Bft) 97,56 %
01.05.2026 12:44 21,2 °C 26,7 °C 23,3 °C 36 % 1025,7 hPa 0,0 l/m² 2 min 860 W/m² 19,3 km/h (3 Bft) 98,00 %
01.05.2026 12:46 21,2 °C 27,2 °C 23,3 °C 35 % 1025,7 hPa 0,0 l/m² 2 min 861 W/m² 25,7 km/h (4 Bft) 97,96 %
01.05.2026 12:48 21,3 °C 27,2 °C 23,3 °C 35 % 1025,6 hPa 0,0 l/m² 2 min 864 W/m² 25,7 km/h (4 Bft) 97,87 %
01.05.2026 12:50 21,3 °C 27,2 °C 23,3 °C 35 % 1025,7 hPa 0,0 l/m² 2 min 866 W/m² 22,5 km/h (4 Bft) 97,87 %
01.05.2026 12:52 21,4 °C 26,7 °C 23,3 °C 35 % 1025,7 hPa 0,0 l/m² 2 min 867 W/m² 35,4 km/h (5 Bft) 95,74 %
01.05.2026 12:54 21,4 °C 26,7 °C 23,3 °C 35 % 1025,7 hPa 0,0 l/m² 2 min 867 W/m² 32,2 km/h (5 Bft) 97,87 %
01.05.2026 12:56 21,4 °C 26,7 °C 23,3 °C 35 % 1025,6 hPa 0,0 l/m² 2 min 868 W/m² 29,0 km/h (5 Bft) 97,87 %
01.05.2026 12:58 21,4 °C 27,2 °C 23,9 °C 35 % 1025,7 hPa 0,0 l/m² 2 min 868 W/m² 19,3 km/h (3 Bft) 93,62 %
01.05.2026 13:00 21,5 °C 27,2 °C 24,4 °C 35 % 1025,5 hPa 0,0 l/m² 2 min 870 W/m² 22,5 km/h (4 Bft) 97,87 %
01.05.2026 13:02 21,6 °C 27,2 °C 23,9 °C 35 % 1025,6 hPa 0,0 l/m² 2 min 872 W/m² 22,5 km/h (4 Bft) 97,83 %
01.05.2026 13:04 21,6 °C 27,2 °C 23,9 °C 35 % 1025,5 hPa 0,0 l/m² 2 min 871 W/m² 19,3 km/h (3 Bft) 97,87 %
01.05.2026 13:06 21,6 °C 27,8 °C 24,4 °C 35 % 1025,4 hPa 0,0 l/m² 2 min 873 W/m² 22,5 km/h (4 Bft) 97,37 %
01.05.2026 13:08 21,7 °C 27,2 °C 23,9 °C 35 % 1025,4 hPa 0,0 l/m² 2 min 873 W/m² 25,7 km/h (4 Bft) 96,00 %
01.05.2026 13:10 21,7 °C 27,2 °C 23,9 °C 35 % 1025,4 hPa 0,0 l/m² 2 min 873 W/m² 32,2 km/h (5 Bft) 95,74 %
01.05.2026 13:12 21,7 °C 27,2 °C 23,9 °C 35 % 1025,6 hPa 0,0 l/m² 2 min 875 W/m² 29,0 km/h (5 Bft) 97,87 %
01.05.2026 13:14 21,7 °C 27,2 °C 24,4 °C 35 % 1025,4 hPa 0,0 l/m² 2 min 874 W/m² 22,5 km/h (4 Bft) 100,00 %
01.05.2026 13:16 21,8 °C 27,2 °C 24,4 °C 35 % 1025,4 hPa 0,0 l/m² 2 min 875 W/m² 32,2 km/h (5 Bft) 100,00 %
01.05.2026 13:18 21,8 °C 27,2 °C 25,0 °C 34 % 1025,3 hPa 0,0 l/m² 2 min 876 W/m² 29,0 km/h (5 Bft) 100,00 %
01.05.2026 13:20 21,8 °C 27,2 °C 25,0 °C 34 % 1025,3 hPa 0,0 l/m² 2 min 878 W/m² 25,7 km/h (4 Bft) 97,96 %
01.05.2026 13:22 21,9 °C 27,8 °C 25,6 °C 35 % 1025,3 hPa 0,0 l/m² 2 min 877 W/m² 22,5 km/h (4 Bft) 100,00 %
01.05.2026 13:24 22,1 °C 27,2 °C 26,1 °C 35 % 1025,3 hPa 0,0 l/m² 2 min 876 W/m² 29,0 km/h (5 Bft) 100,00 %
01.05.2026 13:26 22,1 °C 27,8 °C 25,6 °C 35 % 1025,3 hPa 0,0 l/m² 2 min 875 W/m² 35,4 km/h (5 Bft) 100,00 %
01.05.2026 13:28 22,2 °C 27,8 °C 25,6 °C 35 % 1025,2 hPa 0,0 l/m² 2 min 877 W/m² 19,3 km/h (3 Bft) 100,00 %
01.05.2026 13:30 22,2 °C 28,3 °C 25,6 °C 35 % 1025,2 hPa 0,0 l/m² 2 min 880 W/m² 25,7 km/h (4 Bft) 100,00 %
01.05.2026 13:32 22,3 °C 28,9 °C 26,1 °C 35 % 1025,2 hPa 0,0 l/m² 2 min 878 W/m² 16,1 km/h (3 Bft) 98,11 %
01.05.2026 13:34 22,4 °C 29,4 °C 26,1 °C 36 % 1025,1 hPa 0,0 l/m² 2 min 878 W/m² 22,5 km/h (4 Bft) 100,00 %
01.05.2026 13:36 22,6 °C 29,4 °C 25,6 °C 36 % 1025,1 hPa 0,0 l/m² 2 min 877 W/m² 25,7 km/h (4 Bft) 100,00 %
01.05.2026 13:38 22,7 °C 28,9 °C 25,0 °C 35 % 1025,0 hPa 0,0 l/m² 2 min 878 W/m² 25,7 km/h (4 Bft) 100,00 %
01.05.2026 13:40 22,7 °C 28,9 °C 25,0 °C 35 % 1025,0 hPa 0,0 l/m² 2 min 878 W/m² 19,3 km/h (3 Bft) 100,00 %
01.05.2026 13:42 22,7 °C 28,9 °C 24,4 °C 35 % 1025,0 hPa 0,0 l/m² 2 min 876 W/m² 29,0 km/h (5 Bft) 100,00 %
01.05.2026 13:44 22,7 °C 28,9 °C 23,3 °C 35 % 1025,0 hPa 0,0 l/m² 2 min 877 W/m² 29,0 km/h (5 Bft) 100,00 %
01.05.2026 13:46 22,8 °C 28,3 °C 22,2 °C 35 % 1025,1 hPa 0,0 l/m² 2 min 878 W/m² 19,3 km/h (3 Bft) 97,87 %
01.05.2026 13:48 22,8 °C 28,3 °C 21,7 °C 35 % 1025,0 hPa 0,0 l/m² 2 min 876 W/m² 29,0 km/h (5 Bft) 97,87 %
01.05.2026 13:50 22,8 °C 28,9 °C 21,1 °C 35 % 1025,0 hPa 0,0 l/m² 2 min 877 W/m² 25,7 km/h (4 Bft) 97,96 %
01.05.2026 13:52 22,9 °C 28,9 °C 20,6 °C 34 % 1024,9 hPa 0,0 l/m² 2 min 876 W/m² 29,0 km/h (5 Bft) 96,00 %
01.05.2026 13:54 23,0 °C 28,9 °C 20,6 °C 35 % 1024,9 hPa 0,0 l/m² 2 min 878 W/m² 22,5 km/h (4 Bft) 93,62 %
01.05.2026 13:56 23,0 °C 28,9 °C 20,0 °C 35 % 1024,9 hPa 0,0 l/m² 2 min 875 W/m² 22,5 km/h (4 Bft) 98,00 %
01.05.2026 13:58 23,0 °C 28,9 °C 20,0 °C 34 % 1024,9 hPa 0,0 l/m² 2 min 875 W/m² 25,7 km/h (4 Bft) 97,87 %
01.05.2026 14:00 23,0 °C 29,4 °C 20,0 °C 35 % 1024,8 hPa 0,0 l/m² 2 min 874 W/m² 22,5 km/h (4 Bft) 97,37 %
01.05.2026 14:02 23,1 °C 29,4 °C 20,0 °C 35 % 1024,8 hPa 0,0 l/m² 2 min 874 W/m² 22,5 km/h (4 Bft) 96,23 %
01.05.2026 14:04 23,1 °C 28,9 °C 20,0 °C 34 % 1024,8 hPa 0,0 l/m² 2 min 874 W/m² 32,2 km/h (5 Bft) 91,84 %
01.05.2026 14:06 23,2 °C 29,4 °C 20,0 °C 35 % 1024,7 hPa 0,0 l/m² 2 min 874 W/m² 41,8 km/h (6 Bft) 97,67 %
01.05.2026 14:08 23,2 °C 28,9 °C 20,0 °C 34 % 1024,7 hPa 0,0 l/m² 2 min 874 W/m² 22,5 km/h (4 Bft) 97,96 %
01.05.2026 14:10 23,2 °C 29,4 °C 20,0 °C 34 % 1024,7 hPa 0,0 l/m² 2 min 870 W/m² 19,3 km/h (3 Bft) 96,88 %
01.05.2026 14:12 23,3 °C 30,0 °C 20,0 °C 35 % 1024,8 hPa 0,0 l/m² 2 min 868 W/m² 25,7 km/h (4 Bft) 96,92 %
01.05.2026 14:14 23,4 °C 29,4 °C 20,0 °C 35 % 1024,7 hPa 0,0 l/m² 2 min 867 W/m² 22,5 km/h (4 Bft) 92,11 %
01.05.2026 14:16 23,4 °C 29,4 °C 20,0 °C 35 % 1024,7 hPa 0,0 l/m² 2 min 866 W/m² 16,1 km/h (3 Bft) 93,18 %
01.05.2026 14:18 23,4 °C 29,4 °C 20,0 °C 34 % 1024,6 hPa 0,0 l/m² 2 min 864 W/m² 19,3 km/h (3 Bft) 95,74 %
01.05.2026 14:20 23,5 °C 29,4 °C 20,0 °C 35 % 1024,5 hPa 0,0 l/m² 2 min 862 W/m² 19,3 km/h (3 Bft) 94,00 %
01.05.2026 14:22 23,6 °C 30,6 °C 20,0 °C 35 % 1024,5 hPa 0,0 l/m² 2 min 862 W/m² 12,9 km/h (3 Bft) 95,92 %
01.05.2026 14:24 23,6 °C 30,0 °C 20,0 °C 36 % 1024,4 hPa 0,0 l/m² 2 min 860 W/m² 25,7 km/h (4 Bft) 94,44 %
01.05.2026 14:26 23,7 °C 30,0 °C 20,0 °C 35 % 1024,5 hPa 0,0 l/m² 2 min 860 W/m² 25,7 km/h (4 Bft) 96,36 %
01.05.2026 14:28 23,7 °C 30,0 °C 20,0 °C 35 % 1024,5 hPa 0,0 l/m² 2 min 856 W/m² 22,5 km/h (4 Bft) 95,74 %
01.05.2026 14:30 23,8 °C 30,0 °C 20,0 °C 35 % 1024,5 hPa 0,0 l/m² 2 min 855 W/m² 12,9 km/h (3 Bft) 98,00 %
01.05.2026 14:32 23,9 °C 29,4 °C 20,0 °C 35 % 1024,4 hPa 0,0 l/m² 2 min 856 W/m² 29,0 km/h (5 Bft) 97,87 %
01.05.2026 14:34 23,9 °C 29,4 °C 20,0 °C 34 % 1024,4 hPa 0,0 l/m² 2 min 854 W/m² 25,7 km/h (4 Bft) 95,12 %
01.05.2026 14:36 23,9 °C 29,4 °C 20,0 °C 34 % 1024,4 hPa 0,0 l/m² 2 min 850 W/m² 35,4 km/h (5 Bft) 97,87 %
01.05.2026 14:38 23,9 °C 29,4 °C 20,0 °C 34 % 1024,4 hPa 0,0 l/m² 2 min 849 W/m² 29,0 km/h (5 Bft) 97,87 %
01.05.2026 14:40 24,0 °C 29,4 °C 20,0 °C 33 % 1024,4 hPa 0,0 l/m² 2 min 845 W/m² 29,0 km/h (5 Bft) 95,65 %
01.05.2026 14:42 24,0 °C 29,4 °C 20,0 °C 34 % 1024,3 hPa 0,0 l/m² 2 min 846 W/m² 19,3 km/h (3 Bft) 96,00 %
01.05.2026 14:44 24,1 °C 30,0 °C 20,0 °C 34 % 1024,2 hPa 0,0 l/m² 2 min 843 W/m² 12,9 km/h (3 Bft) 93,62 %
01.05.2026 14:46 24,1 °C 30,0 °C 20,0 °C 34 % 1024,2 hPa 0,0 l/m² 2 min 841 W/m² 16,1 km/h (3 Bft) 91,49 %
01.05.2026 14:48 24,2 °C 30,6 °C 20,6 °C 34 % 1024,1 hPa 0,0 l/m² 2 min 841 W/m² 19,3 km/h (3 Bft) 95,74 %
01.05.2026 14:50 24,2 °C 30,0 °C 20,6 °C 34 % 1024,2 hPa 0,0 l/m² 2 min 838 W/m² 19,3 km/h (3 Bft) 95,74 %
01.05.2026 14:52 24,3 °C 29,4 °C 20,6 °C 34 % 1024,2 hPa 0,0 l/m² 2 min 835 W/m² 19,3 km/h (3 Bft) 95,74 %
01.05.2026 14:54 24,3 °C 29,4 °C 20,6 °C 34 % 1024,1 hPa 0,0 l/m² 2 min 834 W/m² 29,0 km/h (5 Bft) 95,65 %
01.05.2026 14:56 24,3 °C 30,0 °C 20,6 °C 34 % 1024,1 hPa 0,0 l/m² 2 min 831 W/m² 19,3 km/h (3 Bft) 95,74 %
01.05.2026 14:58 24,4 °C 30,6 °C 20,6 °C 34 % 1024,2 hPa 0,0 l/m² 2 min 827 W/m² 19,3 km/h (3 Bft) 95,74 %
01.05.2026 15:00 24,5 °C 30,6 °C 21,1 °C 34 % 1024,1 hPa 0,0 l/m² 2 min 824 W/m² 19,3 km/h (3 Bft) 95,74 %
01.05.2026 15:02 24,6 °C 29,4 °C 20,6 °C 33 % 1024,1 hPa 0,0 l/m² 2 min 824 W/m² 32,2 km/h (5 Bft) 95,74 %
01.05.2026 15:04 24,5 °C 29,4 °C 20,6 °C 32 % 1024,2 hPa 0,0 l/m² 2 min 822 W/m² 38,6 km/h (5 Bft) 95,74 %
01.05.2026 15:06 24,5 °C 29,4 °C 20,6 °C 32 % 1024,1 hPa 0,0 l/m² 2 min 819 W/m² 25,7 km/h (4 Bft) 95,74 %
01.05.2026 15:08 24,5 °C 29,4 °C 20,6 °C 33 % 1024,0 hPa 0,0 l/m² 2 min 816 W/m² 25,7 km/h (4 Bft) 95,74 %
01.05.2026 15:10 24,6 °C 28,9 °C 20,6 °C 32 % 1024,1 hPa 0,0 l/m² 2 min 812 W/m² 29,0 km/h (5 Bft) 97,87 %
01.05.2026 15:12 24,5 °C 28,9 °C 20,6 °C 32 % 1024,0 hPa 0,0 l/m² 2 min 809 W/m² 29,0 km/h (5 Bft) 100,00 %
01.05.2026 15:14 24,5 °C 29,4 °C 20,6 °C 33 % 1024,1 hPa 0,0 l/m² 2 min 808 W/m² 29,0 km/h (5 Bft) 97,83 %
01.05.2026 15:16 24,5 °C 29,4 °C 20,6 °C 32 % 1024,1 hPa 0,0 l/m² 2 min 805 W/m² 16,1 km/h (3 Bft) 100,00 %
01.05.2026 15:18 24,5 °C 30,0 °C 21,1 °C 32 % 1024,0 hPa 0,0 l/m² 2 min 802 W/m² 19,3 km/h (3 Bft) 100,00 %
01.05.2026 15:20 24,6 °C 30,0 °C 21,1 °C 33 % 1024,0 hPa 0,0 l/m² 2 min 799 W/m² 29,0 km/h (5 Bft) 100,00 %
01.05.2026 15:22 24,6 °C 29,4 °C 21,1 °C 33 % 1024,0 hPa 0,0 l/m² 2 min 796 W/m² 19,3 km/h (3 Bft) 100,00 %
01.05.2026 15:24 24,6 °C 29,4 °C 21,1 °C 33 % 1024,0 hPa 0,0 l/m² 2 min 791 W/m² 32,2 km/h (5 Bft) 100,00 %
01.05.2026 15:26 24,7 °C 30,0 °C 21,1 °C 33 % 1023,9 hPa 0,0 l/m² 2 min 791 W/m² 16,1 km/h (3 Bft) 100,00 %
01.05.2026 15:28 24,7 °C 29,4 °C 21,1 °C 33 % 1023,8 hPa 0,0 l/m² 2 min 788 W/m² 29,0 km/h (5 Bft) 100,00 %
01.05.2026 15:30 24,7 °C 29,4 °C 21,1 °C 33 % 1023,8 hPa 0,0 l/m² 2 min 786 W/m² 22,5 km/h (4 Bft) 100,00 %
01.05.2026 15:32 24,8 °C 29,4 °C 21,1 °C 33 % 1023,8 hPa 0,0 l/m² 2 min 786 W/m² 16,1 km/h (3 Bft) 100,00 %
01.05.2026 15:34 24,8 °C 29,4 °C 20,6 °C 32 % 1023,7 hPa 0,0 l/m² 2 min 778 W/m² 22,5 km/h (4 Bft) 100,00 %
01.05.2026 15:36 24,8 °C 30,0 °C 21,1 °C 32 % 1023,7 hPa 0,0 l/m² 2 min 774 W/m² 22,5 km/h (4 Bft) 100,00 %
01.05.2026 15:38 24,8 °C 29,4 °C 21,1 °C 33 % 1023,7 hPa 0,0 l/m² 2 min 772 W/m² 25,7 km/h (4 Bft) 100,00 %
01.05.2026 15:40 24,8 °C 28,9 °C 21,1 °C 33 % 1023,7 hPa 0,0 l/m² 2 min 767 W/m² 35,4 km/h (5 Bft) 100,00 %
01.05.2026 15:42 24,8 °C 28,3 °C 21,1 °C 32 % 1023,7 hPa 0,0 l/m² 2 min 765 W/m² 25,7 km/h (4 Bft) 100,00 %
01.05.2026 15:44 24,8 °C 28,3 °C 20,6 °C 32 % 1023,6 hPa 0,0 l/m² 2 min 760 W/m² 29,0 km/h (5 Bft) 100,00 %
01.05.2026 15:46 24,8 °C 28,9 °C 20,6 °C 32 % 1023,6 hPa 0,0 l/m² 2 min 758 W/m² 22,5 km/h (4 Bft) 100,00 %
01.05.2026 15:48 24,8 °C 29,4 °C 20,6 °C 33 % 1023,5 hPa 0,0 l/m² 2 min 755 W/m² 22,5 km/h (4 Bft) 100,00 %
01.05.2026 15:50 24,8 °C 28,9 °C 21,1 °C 33 % 1023,5 hPa 0,0 l/m² 2 min 750 W/m² 16,1 km/h (3 Bft) 100,00 %
01.05.2026 15:52 24,9 °C 30,0 °C 21,1 °C 33 % 1023,5 hPa 0,0 l/m² 2 min 746 W/m² 16,1 km/h (3 Bft) 100,00 %
01.05.2026 15:54 24,9 °C 30,0 °C 21,7 °C 34 % 1023,4 hPa 0,0 l/m² 2 min 744 W/m² 22,5 km/h (4 Bft) 100,00 %
01.05.2026 15:56 25,1 °C 30,0 °C 21,7 °C 33 % 1023,4 hPa 0,0 l/m² 2 min 739 W/m² 12,9 km/h (3 Bft) 100,00 %
01.05.2026 15:58 25,1 °C 29,4 °C 21,7 °C 33 % 1023,4 hPa 0,0 l/m² 2 min 736 W/m² 19,3 km/h (3 Bft) 100,00 %
01.05.2026 16:00 25,2 °C 29,4 °C 21,7 °C 33 % 1023,4 hPa 0,0 l/m² 2 min 733 W/m² 22,5 km/h (4 Bft) 100,00 %
01.05.2026 16:02 25,2 °C 29,4 °C 21,7 °C 33 % 1023,3 hPa 0,0 l/m² 2 min 729 W/m² 19,3 km/h (3 Bft) 97,87 %
01.05.2026 16:04 25,2 °C 29,4 °C 21,7 °C 32 % 1023,3 hPa 0,0 l/m² 2 min 725 W/m² 29,0 km/h (5 Bft) 97,87 %
01.05.2026 16:06 25,2 °C 29,4 °C 21,7 °C 32 % 1023,3 hPa 0,0 l/m² 2 min 722 W/m² 29,0 km/h (5 Bft) 100,00 %
01.05.2026 16:08 25,2 °C 29,4 °C 21,7 °C 32 % 1023,3 hPa 0,0 l/m² 2 min 717 W/m² 19,3 km/h (3 Bft) 100,00 %
01.05.2026 16:10 25,2 °C 29,4 °C 21,1 °C 32 % 1023,3 hPa 0,0 l/m² 2 min 714 W/m² 22,5 km/h (4 Bft) 100,00 %
01.05.2026 16:12 25,3 °C 28,9 °C 21,1 °C 32 % 1023,2 hPa 0,0 l/m² 2 min 710 W/m² 29,0 km/h (5 Bft) 100,00 %
01.05.2026 16:14 25,3 °C 28,9 °C 21,1 °C 32 % 1023,2 hPa 0,0 l/m² 2 min 707 W/m² 19,3 km/h (3 Bft) 97,87 %
01.05.2026 16:16 25,3 °C 29,4 °C 21,1 °C 32 % 1023,2 hPa 0,0 l/m² 2 min 702 W/m² 29,0 km/h (5 Bft) 97,87 %
01.05.2026 16:18 25,3 °C 29,4 °C 21,7 °C 33 % 1023,2 hPa 0,0 l/m² 2 min 697 W/m² 22,5 km/h (4 Bft) 97,87 %
01.05.2026 16:20 25,4 °C 29,4 °C 21,7 °C 33 % 1023,1 hPa 0,0 l/m² 2 min 693 W/m² 16,1 km/h (3 Bft) 97,83 %
01.05.2026 16:22 25,4 °C 29,4 °C 21,7 °C 33 % 1023,1 hPa 0,0 l/m² 2 min 688 W/m² 16,1 km/h (3 Bft) 95,74 %
01.05.2026 16:24 25,5 °C 30,0 °C 22,2 °C 33 % 1023,1 hPa 0,0 l/m² 2 min 683 W/m² 16,1 km/h (3 Bft) 97,87 %
01.05.2026 16:26 25,5 °C 29,4 °C 21,7 °C 33 % 1023,1 hPa 0,0 l/m² 2 min 680 W/m² 25,7 km/h (4 Bft) 97,87 %
01.05.2026 16:28 25,6 °C 28,9 °C 21,7 °C 33 % 1023,1 hPa 0,0 l/m² 2 min 676 W/m² 25,7 km/h (4 Bft) 97,87 %
01.05.2026 16:30 25,6 °C 28,9 °C 21,1 °C 32 % 1023,0 hPa 0,0 l/m² 2 min 671 W/m² 19,3 km/h (3 Bft) 97,87 %
01.05.2026 16:32 25,6 °C 29,4 °C 21,7 °C 33 % 1023,0 hPa 0,0 l/m² 2 min 667 W/m² 29,0 km/h (5 Bft) 97,87 %
01.05.2026 16:34 25,6 °C 29,4 °C 21,7 °C 33 % 1023,0 hPa 0,0 l/m² 2 min 662 W/m² 16,1 km/h (3 Bft) 95,65 %
01.05.2026 16:36 25,6 °C 28,9 °C 21,7 °C 33 % 1023,0 hPa 0,0 l/m² 2 min 660 W/m² 29,0 km/h (5 Bft) 97,87 %
01.05.2026 16:38 25,6 °C 28,3 °C 21,1 °C 32 % 1023,0 hPa 0,0 l/m² 2 min 655 W/m² 32,2 km/h (5 Bft) 96,00 %
01.05.2026 16:40 25,6 °C 28,9 °C 21,1 °C 32 % 1023,0 hPa 0,0 l/m² 2 min 650 W/m² 19,3 km/h (3 Bft) 95,74 %
01.05.2026 16:42 25,6 °C 28,9 °C 21,1 °C 33 % 1022,9 hPa 0,0 l/m² 2 min 643 W/m² 22,5 km/h (4 Bft) 94,00 %
01.05.2026 16:44 25,6 °C 28,9 °C 21,1 °C 33 % 1023,0 hPa 0,0 l/m² 2 min 640 W/m² 25,7 km/h (4 Bft) 95,74 %
01.05.2026 16:46 25,6 °C 28,9 °C 21,1 °C 33 % 1023,0 hPa 0,0 l/m² 2 min 635 W/m² 25,7 km/h (4 Bft) 95,74 %
01.05.2026 16:48 25,6 °C 28,9 °C 21,7 °C 33 % 1022,8 hPa 0,0 l/m² 2 min 630 W/m² 16,1 km/h (3 Bft) 95,65 %
01.05.2026 16:50 25,5 °C 28,9 °C 21,7 °C 33 % 1022,8 hPa 0,0 l/m² 2 min 622 W/m² 25,7 km/h (4 Bft) 93,62 %
01.05.2026 16:52 25,5 °C 28,9 °C 21,7 °C 33 % 1022,9 hPa 0,0 l/m² 2 min 619 W/m² 25,7 km/h (4 Bft) 95,74 %
01.05.2026 16:54 25,5 °C 28,9 °C 21,7 °C 33 % 1022,8 hPa 0,0 l/m² 2 min 613 W/m² 19,3 km/h (3 Bft) 91,49 %
01.05.2026 16:56 25,4 °C 28,9 °C 21,7 °C 33 % 1022,8 hPa 0,0 l/m² 2 min 608 W/m² 25,7 km/h (4 Bft) 95,74 %
01.05.2026 16:58 25,5 °C 28,9 °C 21,1 °C 33 % 1022,8 hPa 0,0 l/m² 2 min 603 W/m² 22,5 km/h (4 Bft) 97,87 %
01.05.2026 17:00 25,4 °C 28,3 °C 21,7 °C 33 % 1022,8 hPa 0,0 l/m² 2 min 600 W/m² 29,0 km/h (5 Bft) 97,87 %
01.05.2026 17:02 25,4 °C 28,3 °C 21,7 °C 33 % 1022,8 hPa 0,0 l/m² 2 min 596 W/m² 19,3 km/h (3 Bft) 97,87 %
01.05.2026 17:04 25,4 °C 28,3 °C 21,7 °C 33 % 1022,8 hPa 0,0 l/m² 2 min 590 W/m² 25,7 km/h (4 Bft) 97,87 %
01.05.2026 17:06 25,4 °C 28,9 °C 21,7 °C 34 % 1022,7 hPa 0,0 l/m² 2 min 583 W/m² 19,3 km/h (3 Bft) 95,65 %
01.05.2026 17:08 25,5 °C 28,9 °C 21,7 °C 33 % 1022,7 hPa 0,0 l/m² 2 min 577 W/m² 19,3 km/h (3 Bft) 95,74 %
01.05.2026 17:10 25,5 °C 28,9 °C 21,7 °C 34 % 1022,7 hPa 0,0 l/m² 2 min 575 W/m² 19,3 km/h (3 Bft) 95,74 %
01.05.2026 17:12 25,6 °C 28,9 °C 21,7 °C 33 % 1022,7 hPa 0,0 l/m² 2 min 570 W/m² 19,3 km/h (3 Bft) 97,87 %
01.05.2026 17:14 25,6 °C 28,3 °C 21,7 °C 33 % 1022,7 hPa 0,0 l/m² 2 min 564 W/m² 29,0 km/h (5 Bft) 100,00 %
01.05.2026 17:16 25,6 °C 28,3 °C 21,7 °C 33 % 1022,7 hPa 0,0 l/m² 2 min 559 W/m² 22,5 km/h (4 Bft) 97,87 %
01.05.2026 17:18 25,5 °C 28,3 °C 21,1 °C 33 % 1022,6 hPa 0,0 l/m² 2 min 554 W/m² 19,3 km/h (3 Bft) 97,87 %
01.05.2026 17:20 25,5 °C 28,3 °C 21,1 °C 33 % 1022,6 hPa 0,0 l/m² 2 min 547 W/m² 19,3 km/h (3 Bft) 97,83 %
01.05.2026 17:22 25,5 °C 28,9 °C 21,7 °C 33 % 1022,6 hPa 0,0 l/m² 2 min 541 W/m² 16,1 km/h (3 Bft) 100,00 %
01.05.2026 17:24 25,5 °C 28,3 °C 21,1 °C 33 % 1022,6 hPa 0,0 l/m² 2 min 536 W/m² 29,0 km/h (5 Bft) 100,00 %
01.05.2026 17:26 25,4 °C 28,3 °C 21,1 °C 34 % 1022,5 hPa 0,0 l/m² 2 min 531 W/m² 19,3 km/h (3 Bft) 97,87 %
01.05.2026 17:28 25,4 °C 28,3 °C 21,1 °C 34 % 1022,5 hPa 0,0 l/m² 2 min 525 W/m² 19,3 km/h (3 Bft) 97,87 %
01.05.2026 17:30 25,4 °C 28,9 °C 21,7 °C 34 % 1022,5 hPa 0,0 l/m² 2 min 520 W/m² 16,1 km/h (3 Bft) 97,87 %
01.05.2026 17:32 25,4 °C 28,9 °C 21,7 °C 34 % 1022,5 hPa 0,0 l/m² 2 min 515 W/m² 19,3 km/h (3 Bft) 97,87 %
01.05.2026 17:34 25,5 °C 28,3 °C 21,1 °C 33 % 1022,6 hPa 0,0 l/m² 2 min 510 W/m² 25,7 km/h (4 Bft) 97,37 %
01.05.2026 17:36 25,4 °C 28,3 °C 21,1 °C 33 % 1022,4 hPa 0,0 l/m² 2 min 504 W/m² 19,3 km/h (3 Bft) 97,87 %
01.05.2026 17:38 25,4 °C 27,8 °C 21,1 °C 33 % 1022,4 hPa 0,0 l/m² 2 min 497 W/m² 22,5 km/h (4 Bft) 97,87 %
01.05.2026 17:40 25,4 °C 28,3 °C 21,1 °C 33 % 1022,4 hPa 0,0 l/m² 2 min 491 W/m² 25,7 km/h (4 Bft) 97,83 %
01.05.2026 17:42 25,3 °C 27,8 °C 21,1 °C 33 % 1022,2 hPa 0,0 l/m² 2 min 485 W/m² 29,0 km/h (5 Bft) 95,74 %
01.05.2026 17:44 25,3 °C 27,8 °C 21,7 °C 33 % 1022,3 hPa 0,0 l/m² 2 min 481 W/m² 19,3 km/h (3 Bft) 95,74 %
01.05.2026 17:46 25,3 °C 28,3 °C 21,7 °C 33 % 1022,3 hPa 0,0 l/m² 2 min 474 W/m² 19,3 km/h (3 Bft) 98,00 %
01.05.2026 17:48 25,3 °C 27,8 °C 21,1 °C 33 % 1022,4 hPa 0,0 l/m² 2 min 467 W/m² 22,5 km/h (4 Bft) 97,62 %
01.05.2026 17:50 25,2 °C 28,3 °C 21,7 °C 34 % 1022,4 hPa 0,0 l/m² 2 min 464 W/m² 22,5 km/h (4 Bft) 98,00 %
01.05.2026 17:52 25,3 °C 28,3 °C 21,7 °C 34 % 1022,3 hPa 0,0 l/m² 2 min 457 W/m² 19,3 km/h (3 Bft) 97,87 %
01.05.2026 17:54 25,3 °C 28,3 °C 21,7 °C 34 % 1022,2 hPa 0,0 l/m² 2 min 454 W/m² 25,7 km/h (4 Bft) 95,74 %
01.05.2026 17:56 25,3 °C 27,8 °C 21,7 °C 34 % 1022,1 hPa 0,0 l/m² 2 min 448 W/m² 29,0 km/h (5 Bft) 97,96 %
01.05.2026 17:58 25,3 °C 27,8 °C 21,1 °C 34 % 1022,3 hPa 0,0 l/m² 2 min 441 W/m² 22,5 km/h (4 Bft) 97,87 %
01.05.2026 18:00 25,3 °C 27,8 °C 21,1 °C 34 % 1022,2 hPa 0,0 l/m² 2 min 436 W/m² 29,0 km/h (5 Bft) 95,74 %
01.05.2026 18:02 25,3 °C 27,8 °C 21,1 °C 34 % 1022,2 hPa 0,0 l/m² 2 min 431 W/m² 19,3 km/h (3 Bft) 97,87 %
01.05.2026 18:04 25,3 °C 27,8 °C 21,1 °C 34 % 1022,2 hPa 0,0 l/m² 2 min 426 W/m² 22,5 km/h (4 Bft) 97,87 %
01.05.2026 18:06 25,2 °C 27,8 °C 20,6 °C 34 % 1022,2 hPa 0,0 l/m² 2 min 419 W/m² 19,3 km/h (3 Bft) 97,62 %
01.05.2026 18:08 25,2 °C 28,3 °C 20,6 °C 34 % 1022,2 hPa 0,0 l/m² 2 min 413 W/m² 19,3 km/h (3 Bft) 97,87 %
01.05.2026 18:10 25,2 °C 28,3 °C 21,1 °C 34 % 1022,1 hPa 0,0 l/m² 2 min 410 W/m² 16,1 km/h (3 Bft) 95,74 %
01.05.2026 18:12 25,2 °C 28,3 °C 21,1 °C 34 % 1022,2 hPa 0,0 l/m² 2 min 406 W/m² 19,3 km/h (3 Bft) 98,15 %
01.05.2026 18:14 25,2 °C 27,8 °C 21,1 °C 34 % 1022,1 hPa 0,0 l/m² 2 min 399 W/m² 19,3 km/h (3 Bft) 97,83 %
01.05.2026 18:16 25,2 °C 28,3 °C 21,1 °C 34 % 1022,1 hPa 0,0 l/m² 2 min 396 W/m² 16,1 km/h (3 Bft) 97,22 %
01.05.2026 18:18 25,3 °C 28,3 °C 21,1 °C 34 % 1022,1 hPa 0,0 l/m² 2 min 390 W/m² 22,5 km/h (4 Bft) 97,96 %
01.05.2026 18:20 25,3 °C 28,9 °C 21,1 °C 35 % 1022,0 hPa 0,0 l/m² 2 min 384 W/m² 16,1 km/h (3 Bft) 97,87 %
01.05.2026 18:22 25,3 °C 28,9 °C 21,1 °C 34 % 1022,0 hPa 0,0 l/m² 2 min 379 W/m² 25,7 km/h (4 Bft) 97,87 %
01.05.2026 18:24 25,3 °C 29,4 °C 20,6 °C 35 % 1021,9 hPa 0,0 l/m² 2 min 372 W/m² 12,9 km/h (3 Bft) 97,87 %
01.05.2026 18:26 25,3 °C 29,4 °C 20,6 °C 36 % 1021,9 hPa 0,0 l/m² 2 min 365 W/m² 19,3 km/h (3 Bft) 97,87 %
01.05.2026 18:28 25,4 °C 28,9 °C 20,6 °C 35 % 1022,0 hPa 0,0 l/m² 2 min 359 W/m² 22,5 km/h (4 Bft) 97,87 %
01.05.2026 18:30 25,4 °C 28,9 °C 20,6 °C 35 % 1021,9 hPa 0,0 l/m² 2 min 351 W/m² 32,2 km/h (5 Bft) 94,00 %
01.05.2026 18:32 25,4 °C 28,3 °C 20,6 °C 35 % 1021,9 hPa 0,0 l/m² 2 min 345 W/m² 19,3 km/h (3 Bft) 100,00 %
01.05.2026 18:34 25,4 °C 28,3 °C 20,0 °C 35 % 1021,9 hPa 0,0 l/m² 2 min 337 W/m² 16,1 km/h (3 Bft) 100,00 %
01.05.2026 18:36 25,3 °C 28,3 °C 20,0 °C 35 % 1021,9 hPa 0,0 l/m² 2 min 329 W/m² 16,1 km/h (3 Bft) 100,00 %
01.05.2026 18:38 25,3 °C 27,8 °C 20,0 °C 35 % 1021,9 hPa 0,0 l/m² 2 min 323 W/m² 22,5 km/h (4 Bft) 97,87 %
01.05.2026 18:40 25,2 °C 27,8 °C 20,0 °C 34 % 1021,8 hPa 0,0 l/m² 2 min 316 W/m² 19,3 km/h (3 Bft) 97,87 %
01.05.2026 18:42 25,2 °C 28,3 °C 19,4 °C 35 % 1021,9 hPa 0,0 l/m² 2 min 308 W/m² 16,1 km/h (3 Bft) 97,87 %
01.05.2026 18:44 25,2 °C 27,2 °C 19,4 °C 34 % 1021,8 hPa 0,0 l/m² 2 min 302 W/m² 25,7 km/h (4 Bft) 97,87 %
01.05.2026 18:46 25,1 °C 27,2 °C 19,4 °C 34 % 1021,9 hPa 0,0 l/m² 2 min 296 W/m² 22,5 km/h (4 Bft) 95,65 %
01.05.2026 18:48 25,1 °C 26,7 °C 19,4 °C 34 % 1021,9 hPa 0,0 l/m² 2 min 288 W/m² 19,3 km/h (3 Bft) 94,87 %
01.05.2026 18:50 24,9 °C 25,0 °C 19,4 °C 34 % 1021,8 hPa 0,0 l/m² 2 min 280 W/m² 19,3 km/h (3 Bft) 97,83 %
01.05.2026 18:52 24,8 °C 23,9 °C 19,4 °C 34 % 1021,8 hPa 0,0 l/m² 2 min 273 W/m² 32,2 km/h (5 Bft) 95,74 %
01.05.2026 18:54 24,8 °C 23,3 °C 18,9 °C 33 % 1021,8 hPa 0,0 l/m² 2 min 265 W/m² 22,5 km/h (4 Bft) 95,74 %
01.05.2026 18:56 24,7 °C 23,3 °C 18,9 °C 34 % 1021,8 hPa 0,0 l/m² 2 min 258 W/m² 22,5 km/h (4 Bft) 93,62 %
01.05.2026 18:58 24,6 °C 22,8 °C 18,9 °C 34 % 1021,8 hPa 0,0 l/m² 2 min 251 W/m² 25,7 km/h (4 Bft) 93,62 %
01.05.2026 19:00 24,5 °C 22,8 °C 18,9 °C 34 % 1021,8 hPa 0,0 l/m² 2 min 244 W/m² 16,1 km/h (3 Bft) 95,74 %
01.05.2026 19:02 24,4 °C 22,8 °C 18,9 °C 34 % 1021,8 hPa 0,0 l/m² 2 min 237 W/m² 22,5 km/h (4 Bft) 93,62 %
01.05.2026 19:04 24,4 °C 22,8 °C 18,9 °C 34 % 1021,8 hPa 0,0 l/m² 2 min 230 W/m² 22,5 km/h (4 Bft) 96,00 %
01.05.2026 19:06 24,3 °C 22,8 °C 18,9 °C 34 % 1021,7 hPa 0,0 l/m² 2 min 186 W/m² 16,1 km/h (3 Bft) 95,65 %
01.05.2026 19:08 24,3 °C 22,8 °C 18,9 °C 35 % 1021,7 hPa 0,0 l/m² 0 min 102 W/m² 12,9 km/h (3 Bft) 96,00 %
01.05.2026 19:10 24,2 °C 22,8 °C 18,9 °C 35 % 1021,8 hPa 0,0 l/m² 0 min 40 W/m² 25,7 km/h (4 Bft) 95,74 %
01.05.2026 19:12 24,1 °C 22,8 °C 18,9 °C 35 % 1021,7 hPa 0,0 l/m² 0 min 37 W/m² 25,7 km/h (4 Bft) 95,74 %
01.05.2026 19:14 24,0 °C 22,8 °C 18,9 °C 35 % 1021,7 hPa 0,0 l/m² 0 min 35 W/m² 12,9 km/h (3 Bft) 96,00 %
01.05.2026 19:16 23,9 °C 22,8 °C 18,9 °C 35 % 1021,7 hPa 0,0 l/m² 0 min 35 W/m² 16,1 km/h (3 Bft) 97,37 %
01.05.2026 19:18 23,8 °C 22,8 °C 18,9 °C 35 % 1021,7 hPa 0,0 l/m² 0 min 35 W/m² 16,1 km/h (3 Bft) 98,11 %
01.05.2026 19:20 23,8 °C 22,2 °C 18,9 °C 35 % 1021,6 hPa 0,0 l/m² 0 min 33 W/m² 22,5 km/h (4 Bft) 97,37 %
01.05.2026 19:22 23,7 °C 22,2 °C 18,3 °C 35 % 1021,7 hPa 0,0 l/m² 0 min 33 W/m² 19,3 km/h (3 Bft) 94,00 %
01.05.2026 19:24 23,6 °C 22,2 °C 18,3 °C 36 % 1021,7 hPa 0,0 l/m² 0 min 33 W/m² 22,5 km/h (4 Bft) 97,96 %
01.05.2026 19:26 23,6 °C 22,2 °C 18,3 °C 36 % 1021,7 hPa 0,0 l/m² 0 min 33 W/m² 16,1 km/h (3 Bft) 98,00 %
01.05.2026 19:28 23,4 °C 22,2 °C 18,3 °C 36 % 1021,6 hPa 0,0 l/m² 0 min 32 W/m² 12,9 km/h (3 Bft) 100,00 %
01.05.2026 19:30 23,4 °C 22,2 °C 18,3 °C 36 % 1021,6 hPa 0,0 l/m² 0 min 32 W/m² 22,5 km/h (4 Bft) 97,14 %
01.05.2026 19:32 23,3 °C 22,2 °C 18,3 °C 37 % 1021,7 hPa 0,0 l/m² 0 min 32 W/m² 19,3 km/h (3 Bft) 98,00 %
01.05.2026 19:34 23,3 °C 22,2 °C 18,3 °C 37 % 1021,7 hPa 0,0 l/m² 0 min 32 W/m² 12,9 km/h (3 Bft) 100,00 %
01.05.2026 19:36 23,2 °C 22,2 °C 18,3 °C 37 % 1021,7 hPa 0,0 l/m² 0 min 30 W/m² 19,3 km/h (3 Bft) 100,00 %
01.05.2026 19:38 23,2 °C 21,7 °C 18,3 °C 37 % 1021,7 hPa 0,0 l/m² 0 min 30 W/m² 12,9 km/h (3 Bft) 97,96 %
01.05.2026 19:40 23,1 °C 21,7 °C 18,3 °C 37 % 1021,6 hPa 0,0 l/m² 0 min 30 W/m² 12,9 km/h (3 Bft) 100,00 %
01.05.2026 19:42 23,1 °C 21,7 °C 18,3 °C 37 % 1021,6 hPa 0,0 l/m² 0 min 28 W/m² 12,9 km/h (3 Bft) 100,00 %
01.05.2026 19:44 23,1 °C 21,7 °C 17,8 °C 38 % 1021,7 hPa 0,0 l/m² 0 min 28 W/m² 9,7 km/h (2 Bft) 100,00 %
01.05.2026 19:46 23,0 °C 21,7 °C 17,8 °C 38 % 1021,7 hPa 0,0 l/m² 0 min 28 W/m² 9,7 km/h (2 Bft) 100,00 %
01.05.2026 19:48 22,9 °C 21,7 °C 17,8 °C 38 % 1021,7 hPa 0,0 l/m² 0 min 26 W/m² 19,3 km/h (3 Bft) 100,00 %
01.05.2026 19:50 22,9 °C 21,7 °C 17,8 °C 38 % 1021,6 hPa 0,0 l/m² 0 min 26 W/m² 16,1 km/h (3 Bft) 100,00 %
01.05.2026 19:52 22,8 °C 21,7 °C 17,8 °C 39 % 1021,7 hPa 0,0 l/m² 0 min 25 W/m² 12,9 km/h (3 Bft) 97,87 %
01.05.2026 19:54 22,8 °C 21,1 °C 17,8 °C 39 % 1021,6 hPa 0,0 l/m² 0 min 25 W/m² 12,9 km/h (3 Bft) 100,00 %
01.05.2026 19:56 22,7 °C 21,1 °C 17,8 °C 39 % 1021,7 hPa 0,0 l/m² 0 min 25 W/m² 12,9 km/h (3 Bft) 97,87 %
01.05.2026 19:58 22,7 °C 21,1 °C 17,8 °C 40 % 1021,7 hPa 0,0 l/m² 0 min 23 W/m² 19,3 km/h (3 Bft) 100,00 %
01.05.2026 20:00 22,6 °C 21,1 °C 17,8 °C 39 % 1021,7 hPa 0,0 l/m² 0 min 23 W/m² 16,1 km/h (3 Bft) 100,00 %
01.05.2026 20:02 22,6 °C 21,1 °C 17,2 °C 39 % 1021,8 hPa 0,0 l/m² 0 min 22 W/m² 9,7 km/h (2 Bft) 100,00 %
01.05.2026 20:04 22,5 °C 21,1 °C 17,2 °C 40 % 1021,8 hPa 0,0 l/m² 0 min 21 W/m² 6,4 km/h (2 Bft) 98,00 %
01.05.2026 20:06 22,4 °C 21,1 °C 17,2 °C 39 % 1021,8 hPa 0,0 l/m² 0 min 21 W/m² 12,9 km/h (3 Bft) 100,00 %
01.05.2026 20:08 22,4 °C 21,1 °C 17,2 °C 39 % 1021,8 hPa 0,0 l/m² 0 min 19 W/m² 16,1 km/h (3 Bft) 100,00 %
01.05.2026 20:10 22,3 °C 20,6 °C 17,2 °C 40 % 1021,8 hPa 0,0 l/m² 0 min 19 W/m² 12,9 km/h (3 Bft) 100,00 %
01.05.2026 20:12 22,3 °C 20,6 °C 17,2 °C 40 % 1021,8 hPa 0,0 l/m² 0 min 19 W/m² 16,1 km/h (3 Bft) 98,00 %
01.05.2026 20:14 22,2 °C 20,6 °C 17,2 °C 40 % 1021,8 hPa 0,0 l/m² 0 min 18 W/m² 12,9 km/h (3 Bft) 100,00 %
01.05.2026 20:16 22,2 °C 20,6 °C 17,2 °C 40 % 1021,8 hPa 0,0 l/m² 0 min 18 W/m² 9,7 km/h (2 Bft) 100,00 %
01.05.2026 20:18 22,1 °C 20,6 °C 17,2 °C 40 % 1021,8 hPa 0,0 l/m² 0 min 17 W/m² 12,9 km/h (3 Bft) 100,00 %
01.05.2026 20:20 22,1 °C 20,6 °C 16,7 °C 40 % 1021,8 hPa 0,0 l/m² 0 min 16 W/m² 12,9 km/h (3 Bft) 100,00 %
01.05.2026 20:22 22,0 °C 20,6 °C 16,7 °C 40 % 1021,8 hPa 0,0 l/m² 0 min 16 W/m² 12,9 km/h (3 Bft) 97,87 %
01.05.2026 20:24 21,9 °C 20,0 °C 16,7 °C 40 % 1021,8 hPa 0,0 l/m² 0 min 15 W/m² 16,1 km/h (3 Bft) 100,00 %
01.05.2026 20:26 21,9 °C 20,0 °C 16,7 °C 41 % 1021,8 hPa 0,0 l/m² 0 min 14 W/m² 16,1 km/h (3 Bft) 100,00 %
01.05.2026 20:28 21,8 °C 20,0 °C 16,7 °C 40 % 1021,8 hPa 0,0 l/m² 0 min 14 W/m² 16,1 km/h (3 Bft) 100,00 %
01.05.2026 20:30 21,7 °C 20,0 °C 16,7 °C 41 % 1021,8 hPa 0,0 l/m² 0 min 13 W/m² 9,7 km/h (2 Bft) 97,96 %
01.05.2026 20:32 21,7 °C 20,0 °C 16,7 °C 41 % 1021,8 hPa 0,0 l/m² 0 min 12 W/m² 12,9 km/h (3 Bft) 98,00 %
01.05.2026 20:34 21,6 °C 20,0 °C 16,7 °C 41 % 1021,7 hPa 0,0 l/m² 0 min 12 W/m² 12,9 km/h (3 Bft) 97,87 %
01.05.2026 20:36 21,5 °C 20,0 °C 16,1 °C 41 % 1021,8 hPa 0,0 l/m² 0 min 11 W/m² 9,7 km/h (2 Bft) 100,00 %
01.05.2026 20:38 21,4 °C 19,4 °C 16,1 °C 41 % 1021,8 hPa 0,0 l/m² 0 min 11 W/m² 9,7 km/h (2 Bft) 98,00 %
01.05.2026 20:40 21,4 °C 19,4 °C 16,1 °C 42 % 1021,8 hPa 0,0 l/m² 0 min 11 W/m² 16,1 km/h (3 Bft) 97,87 %
01.05.2026 20:42 21,3 °C 19,4 °C 16,1 °C 42 % 1021,8 hPa 0,0 l/m² 0 min 9 W/m² 6,4 km/h (2 Bft) 94,74 %
01.05.2026 20:44 21,2 °C 19,4 °C 16,1 °C 42 % 1021,7 hPa 0,0 l/m² 0 min 9 W/m² 9,7 km/h (2 Bft) 94,55 %
01.05.2026 20:46 21,2 °C 19,4 °C 16,1 °C 42 % 1021,8 hPa 0,0 l/m² 0 min 8 W/m² 6,4 km/h (2 Bft) 95,74 %
01.05.2026 20:48 21,1 °C 19,4 °C 16,1 °C 42 % 1021,8 hPa 0,0 l/m² 0 min 7 W/m² 6,4 km/h (2 Bft) 95,12 %
01.05.2026 20:50 21,1 °C 19,4 °C 16,1 °C 42 % 1021,7 hPa 0,0 l/m² 0 min 7 W/m² 12,9 km/h (3 Bft) 97,37 %
01.05.2026 20:52 20,9 °C 18,9 °C 15,6 °C 42 % 1021,8 hPa 0,0 l/m² 0 min 5 W/m² 6,4 km/h (2 Bft) 94,34 %
01.05.2026 20:54 20,9 °C 18,9 °C 15,6 °C 42 % 1021,7 hPa 0,0 l/m² 0 min 5 W/m² 9,7 km/h (2 Bft) 95,74 %
01.05.2026 20:56 20,8 °C 18,9 °C 15,6 °C 42 % 1021,8 hPa 0,0 l/m² 0 min 5 W/m² 6,4 km/h (2 Bft) 93,62 %
01.05.2026 20:58 20,7 °C 18,9 °C 15,6 °C 42 % 1021,7 hPa 0,0 l/m² 0 min 2 W/m² 9,7 km/h (2 Bft) 95,74 %
01.05.2026 21:00 20,7 °C 18,9 °C 15,6 °C 42 % 1021,8 hPa 0,0 l/m² 0 min 0 W/m² 6,4 km/h (2 Bft) 95,92 %
01.05.2026 21:02 20,6 °C 18,9 °C 15,6 °C 43 % 1021,8 hPa 0,0 l/m² 0 min 0 W/m² 6,4 km/h (2 Bft) 95,74 %
01.05.2026 21:04 20,5 °C 18,9 °C 15,6 °C 43 % 1021,7 hPa 0,0 l/m² 0 min 0 W/m² 6,4 km/h (2 Bft) 95,74 %
01.05.2026 21:06 20,4 °C 18,9 °C 15,6 °C 42 % 1021,8 hPa 0,0 l/m² 0 min 0 W/m² 6,4 km/h (2 Bft) 95,74 %
01.05.2026 21:08 20,4 °C 18,9 °C 15,6 °C 42 % 1021,8 hPa 0,0 l/m² 0 min 0 W/m² 9,7 km/h (2 Bft) 95,74 %
01.05.2026 21:10 20,3 °C 18,9 °C 15,6 °C 43 % 1021,8 hPa 0,0 l/m² 0 min 0 W/m² 6,4 km/h (2 Bft) 96,00 %
01.05.2026 21:12 20,3 °C 18,9 °C 15,6 °C 44 % 1021,8 hPa 0,0 l/m² 0 min 0 W/m² 3,2 km/h (1 Bft) 97,37 %
01.05.2026 21:14 20,2 °C 18,3 °C 15,0 °C 43 % 1021,8 hPa 0,0 l/m² 0 min 0 W/m² 9,7 km/h (2 Bft) 100,00 %
01.05.2026 21:16 20,1 °C 18,3 °C 15,0 °C 43 % 1021,8 hPa 0,0 l/m² 0 min 0 W/m² 6,4 km/h (2 Bft) 97,87 %
01.05.2026 21:18 20,1 °C 18,3 °C 15,0 °C 43 % 1021,8 hPa 0,0 l/m² 0 min 0 W/m² 6,4 km/h (2 Bft) 96,15 %
01.05.2026 21:20 20,1 °C 18,3 °C 15,0 °C 43 % 1021,8 hPa 0,0 l/m² 0 min 0 W/m² 6,4 km/h (2 Bft) 96,00 %
01.05.2026 21:22 19,9 °C 18,3 °C 15,0 °C 44 % 1021,8 hPa 0,0 l/m² 0 min 0 W/m² 12,9 km/h (3 Bft) 97,62 %
01.05.2026 21:24 19,9 °C 18,3 °C 15,0 °C 44 % 1021,9 hPa 0,0 l/m² 0 min 0 W/m² 9,7 km/h (2 Bft) 98,00 %
01.05.2026 21:26 19,8 °C 18,3 °C 15,0 °C 43 % 1021,8 hPa 0,0 l/m² 0 min 0 W/m² 12,9 km/h (3 Bft) 100,00 %
01.05.2026 21:28 19,8 °C 18,3 °C 15,0 °C 44 % 1021,8 hPa 0,0 l/m² 0 min 0 W/m² 12,9 km/h (3 Bft) 96,20 %
01.05.2026 21:30 19,7 °C 18,3 °C 15,0 °C 44 % 1021,8 hPa 0,0 l/m² 0 min 0 W/m² 12,9 km/h (3 Bft) 96,23 %
01.05.2026 21:32 19,7 °C 18,3 °C 15,0 °C 44 % 1021,9 hPa 0,0 l/m² 0 min 0 W/m² 6,4 km/h (2 Bft) 97,37 %
01.05.2026 21:34 19,6 °C 18,3 °C 15,0 °C 44 % 1021,9 hPa 0,0 l/m² 0 min 0 W/m² 6,4 km/h (2 Bft) 96,00 %
01.05.2026 21:36 19,6 °C 18,3 °C 15,0 °C 43 % 1021,8 hPa 0,0 l/m² 0 min 0 W/m² 25,7 km/h (4 Bft) 97,56 %
01.05.2026 21:38 19,5 °C 18,3 °C 15,0 °C 44 % 1021,8 hPa 0,0 l/m² 0 min 0 W/m² 6,4 km/h (2 Bft) 98,08 %
01.05.2026 21:40 19,4 °C 17,8 °C 14,4 °C 44 % 1021,9 hPa 0,0 l/m² 0 min 0 W/m² 9,7 km/h (2 Bft) 98,00 %
01.05.2026 21:42 19,4 °C 17,8 °C 14,4 °C 44 % 1021,9 hPa 0,0 l/m² 0 min 0 W/m² 6,4 km/h (2 Bft) 97,87 %
01.05.2026 21:44 19,4 °C 17,8 °C 14,4 °C 45 % 1021,9 hPa 0,0 l/m² 0 min 0 W/m² 9,7 km/h (2 Bft) 98,00 %
01.05.2026 21:46 19,3 °C 17,8 °C 14,4 °C 44 % 1021,9 hPa 0,0 l/m² 0 min 0 W/m² 12,9 km/h (3 Bft) 97,87 %
01.05.2026 21:48 19,3 °C 17,8 °C 14,4 °C 44 % 1021,9 hPa 0,0 l/m² 0 min 0 W/m² 12,9 km/h (3 Bft) 95,65 %
01.05.2026 21:50 19,2 °C 17,8 °C 14,4 °C 44 % 1021,9 hPa 0,0 l/m² 0 min 0 W/m² 6,4 km/h (2 Bft) 100,00 %
01.05.2026 21:52 19,2 °C 17,8 °C 14,4 °C 44 % 1021,9 hPa 0,0 l/m² 0 min 0 W/m² 6,4 km/h (2 Bft) 95,65 %
01.05.2026 21:54 19,2 °C 17,8 °C 14,4 °C 44 % 1022,0 hPa 0,0 l/m² 0 min 0 W/m² 12,9 km/h (3 Bft) 98,00 %
01.05.2026 21:56 19,2 °C 17,8 °C 14,4 °C 45 % 1022,0 hPa 0,0 l/m² 0 min 0 W/m² 12,9 km/h (3 Bft) 97,87 %
01.05.2026 21:58 19,1 °C 17,8 °C 14,4 °C 45 % 1022,0 hPa 0,0 l/m² 0 min 0 W/m² 12,9 km/h (3 Bft) 95,74 %
01.05.2026 22:00 19,1 °C 17,8 °C 14,4 °C 45 % 1022,0 hPa 0,0 l/m² 0 min 0 W/m² 6,4 km/h (2 Bft) 98,11 %
01.05.2026 22:02 19,1 °C 17,8 °C 14,4 °C 45 % 1022,0 hPa 0,0 l/m² 0 min 0 W/m² 12,9 km/h (3 Bft) 97,14 %
01.05.2026 22:04 19,1 °C 17,8 °C 14,4 °C 45 % 1022,0 hPa 0,0 l/m² 0 min 0 W/m² 9,7 km/h (2 Bft) 98,21 %
01.05.2026 22:06 19,0 °C 17,8 °C 14,4 °C 45 % 1022,0 hPa 0,0 l/m² 0 min 0 W/m² 9,7 km/h (2 Bft) 95,92 %
01.05.2026 22:08 19,0 °C 17,8 °C 14,4 °C 45 % 1022,0 hPa 0,0 l/m² 0 min 0 W/m² 9,7 km/h (2 Bft) 97,14 %
01.05.2026 22:10 18,9 °C 17,8 °C 14,4 °C 45 % 1022,0 hPa 0,0 l/m² 0 min 0 W/m² 6,4 km/h (2 Bft) 96,00 %
01.05.2026 22:12 18,9 °C 17,8 °C 14,4 °C 45 % 1021,9 hPa 0,0 l/m² 0 min 0 W/m² 12,9 km/h (3 Bft) 100,00 %
01.05.2026 22:14 18,9 °C 17,8 °C 13,9 °C 45 % 1022,0 hPa 0,0 l/m² 0 min 0 W/m² 6,4 km/h (2 Bft) 100,00 %
01.05.2026 22:16 18,9 °C 17,2 °C 13,9 °C 45 % 1021,9 hPa 0,0 l/m² 0 min 0 W/m² 6,4 km/h (2 Bft) 100,00 %
01.05.2026 22:18 18,8 °C 17,2 °C 13,9 °C 45 % 1022,0 hPa 0,0 l/m² 0 min 0 W/m² 6,4 km/h (2 Bft) 98,08 %
01.05.2026 22:20 18,8 °C 17,2 °C 13,9 °C 45 % 1022,0 hPa 0,0 l/m² 0 min 0 W/m² 6,4 km/h (2 Bft) 97,37 %
01.05.2026 22:22 18,8 °C 17,2 °C 13,9 °C 45 % 1022,0 hPa 0,0 l/m² 0 min 0 W/m² 6,4 km/h (2 Bft) 100,00 %
01.05.2026 22:24 18,8 °C 17,2 °C 13,9 °C 46 % 1022,0 hPa 0,0 l/m² 0 min 0 W/m² 6,4 km/h (2 Bft) 100,00 %
01.05.2026 22:26 18,7 °C 17,2 °C 13,9 °C 46 % 1022,0 hPa 0,0 l/m² 0 min 0 W/m² 6,4 km/h (2 Bft) 97,87 %
01.05.2026 22:28 18,7 °C 17,2 °C 13,9 °C 46 % 1022,0 hPa 0,0 l/m² 0 min 0 W/m² 12,9 km/h (3 Bft) 95,74 %
01.05.2026 22:30 18,6 °C 16,7 °C 13,9 °C 47 % 1022,0 hPa 0,0 l/m² 0 min 0 W/m² 6,4 km/h (2 Bft) 97,87 %
01.05.2026 22:32 18,6 °C 16,7 °C 13,9 °C 46 % 1022,0 hPa 0,0 l/m² 0 min 0 W/m² 12,9 km/h (3 Bft) 97,87 %
01.05.2026 22:34 18,5 °C 16,7 °C 13,3 °C 47 % 1022,0 hPa 0,0 l/m² 0 min 0 W/m² 6,4 km/h (2 Bft) 97,87 %
01.05.2026 22:36 18,4 °C 16,7 °C 13,3 °C 47 % 1022,0 hPa 0,0 l/m² 0 min 0 W/m² 6,4 km/h (2 Bft) 97,83 %
01.05.2026 22:38 18,4 °C 16,7 °C 13,3 °C 47 % 1022,0 hPa 0,0 l/m² 0 min 0 W/m² 16,1 km/h (3 Bft) 94,44 %
01.05.2026 22:40 18,3 °C 16,7 °C 13,3 °C 47 % 1022,0 hPa 0,0 l/m² 0 min 0 W/m² 16,1 km/h (3 Bft) 96,72 %
01.05.2026 22:42 18,3 °C 16,7 °C 13,3 °C 47 % 1021,9 hPa 0,0 l/m² 0 min 0 W/m² 16,1 km/h (3 Bft) 97,87 %
01.05.2026 22:44 18,3 °C 16,7 °C 13,3 °C 47 % 1021,9 hPa 0,0 l/m² 0 min 0 W/m² 9,7 km/h (2 Bft) 94,74 %
01.05.2026 22:46 18,2 °C 16,7 °C 13,3 °C 47 % 1021,9 hPa 0,0 l/m² 0 min 0 W/m² 6,4 km/h (2 Bft) 95,74 %
01.05.2026 22:48 18,2 °C 16,7 °C 13,3 °C 47 % 1021,9 hPa 0,0 l/m² 0 min 0 W/m² 9,7 km/h (2 Bft) 97,87 %
01.05.2026 22:50 18,1 °C 16,7 °C 13,3 °C 47 % 1021,9 hPa 0,0 l/m² 0 min 0 W/m² 9,7 km/h (2 Bft) 98,00 %
01.05.2026 22:52 18,1 °C 16,7 °C 13,3 °C 47 % 1021,9 hPa 0,0 l/m² 0 min 0 W/m² 9,7 km/h (2 Bft) 98,00 %
01.05.2026 22:54 18,1 °C 16,7 °C 13,3 °C 48 % 1021,9 hPa 0,0 l/m² 0 min 0 W/m² 6,4 km/h (2 Bft) 97,83 %
01.05.2026 22:56 18,0 °C 16,7 °C 13,3 °C 48 % 1021,9 hPa 0,0 l/m² 0 min 0 W/m² 6,4 km/h (2 Bft) 97,87 %
01.05.2026 22:58 18,0 °C 16,7 °C 13,3 °C 48 % 1021,9 hPa 0,0 l/m² 0 min 0 W/m² 6,4 km/h (2 Bft) 100,00 %
01.05.2026 23:00 17,9 °C 16,7 °C 13,3 °C 48 % 1021,9 hPa 0,0 l/m² 0 min 0 W/m² 12,9 km/h (3 Bft) 97,87 %
01.05.2026 23:02 17,9 °C 16,7 °C 13,3 °C 48 % 1021,9 hPa 0,0 l/m² 0 min 0 W/m² 6,4 km/h (2 Bft) 100,00 %
01.05.2026 23:04 17,8 °C 16,1 °C 13,3 °C 48 % 1021,9 hPa 0,0 l/m² 0 min 0 W/m² 12,9 km/h (3 Bft) 100,00 %
01.05.2026 23:06 17,8 °C 16,1 °C 12,8 °C 48 % 1021,8 hPa 0,0 l/m² 0 min 0 W/m² 6,4 km/h (2 Bft) 98,31 %
01.05.2026 23:08 17,8 °C 16,1 °C 12,8 °C 49 % 1021,9 hPa 0,0 l/m² 0 min 0 W/m² 12,9 km/h (3 Bft) 94,29 %
01.05.2026 23:10 17,7 °C 16,1 °C 12,8 °C 49 % 1021,9 hPa 0,0 l/m² 0 min 0 W/m² 6,4 km/h (2 Bft) 100,00 %
01.05.2026 23:12 17,7 °C 16,1 °C 12,8 °C 49 % 1021,9 hPa 0,0 l/m² 0 min 0 W/m² 9,7 km/h (2 Bft) 100,00 %
01.05.2026 23:14 17,6 °C 16,1 °C 12,8 °C 49 % 1021,9 hPa 0,0 l/m² 0 min 0 W/m² 3,2 km/h (1 Bft) 100,00 %
01.05.2026 23:16 17,6 °C 16,1 °C 12,8 °C 49 % 1021,9 hPa 0,0 l/m² 0 min 0 W/m² 3,2 km/h (1 Bft) 97,87 %
01.05.2026 23:18 17,6 °C 16,1 °C 12,8 °C 49 % 1021,9 hPa 0,0 l/m² 0 min 0 W/m² 3,2 km/h (1 Bft) 97,87 %
01.05.2026 23:20 17,5 °C 15,6 °C 12,8 °C 49 % 1021,9 hPa 0,0 l/m² 0 min 0 W/m² 3,2 km/h (1 Bft) 97,87 %
01.05.2026 23:22 17,4 °C 15,6 °C 12,8 °C 49 % 1021,9 hPa 0,0 l/m² 0 min 0 W/m² 3,2 km/h (1 Bft) 95,74 %
01.05.2026 23:24 17,4 °C 15,6 °C 12,8 °C 50 % 1021,9 hPa 0,0 l/m² 0 min 0 W/m² 6,4 km/h (2 Bft) 98,25 %
01.05.2026 23:26 17,3 °C 15,6 °C 12,2 °C 50 % 1021,9 hPa 0,0 l/m² 0 min 0 W/m² 3,2 km/h (1 Bft) 97,83 %
01.05.2026 23:28 17,3 °C 15,6 °C 12,2 °C 50 % 1021,9 hPa 0,0 l/m² 0 min 0 W/m² 3,2 km/h (1 Bft) 97,87 %
01.05.2026 23:30 17,2 °C 15,6 °C 12,2 °C 50 % 1021,9 hPa 0,0 l/m² 0 min 0 W/m² 6,4 km/h (2 Bft) 95,74 %
01.05.2026 23:32 17,2 °C 15,6 °C 12,2 °C 50 % 1022,0 hPa 0,0 l/m² 0 min 0 W/m² 3,2 km/h (1 Bft) 97,87 %
01.05.2026 23:34 17,1 °C 15,6 °C 12,2 °C 51 % 1021,9 hPa 0,0 l/m² 0 min 0 W/m² 3,2 km/h (1 Bft) 100,00 %
01.05.2026 23:36 17,1 °C 15,0 °C 12,2 °C 51 % 1021,9 hPa 0,0 l/m² 0 min 0 W/m² 6,4 km/h (2 Bft) 97,87 %
01.05.2026 23:38 17,1 °C 15,0 °C 12,2 °C 51 % 1022,0 hPa 0,0 l/m² 0 min 0 W/m² 3,2 km/h (1 Bft) 95,74 %
01.05.2026 23:40 16,9 °C 15,0 °C 12,2 °C 51 % 1022,0 hPa 0,0 l/m² 0 min 0 W/m² 3,2 km/h (1 Bft) 96,43 %
01.05.2026 23:42 16,9 °C 15,0 °C 12,2 °C 51 % 1021,9 hPa 0,0 l/m² 0 min 0 W/m² 6,4 km/h (2 Bft) 97,37 %
01.05.2026 23:44 16,8 °C 15,0 °C 11,7 °C 51 % 1021,9 hPa 0,0 l/m² 0 min 0 W/m² 6,4 km/h (2 Bft) 97,87 %
01.05.2026 23:46 16,8 °C 15,0 °C 11,7 °C 52 % 1021,9 hPa 0,0 l/m² 0 min 0 W/m² 6,4 km/h (2 Bft) 97,96 %
01.05.2026 23:48 16,7 °C 15,0 °C 11,7 °C 52 % 1021,9 hPa 0,0 l/m² 0 min 0 W/m² 3,2 km/h (1 Bft) 97,87 %
01.05.2026 23:50 16,7 °C 15,0 °C 11,7 °C 52 % 1021,8 hPa 0,0 l/m² 0 min 0 W/m² 3,2 km/h (1 Bft) 98,11 %
01.05.2026 23:52 16,6 °C 15,0 °C 11,7 °C 52 % 1021,9 hPa 0,0 l/m² 0 min 0 W/m² 3,2 km/h (1 Bft) 97,87 %
01.05.2026 23:54 16,6 °C 15,0 °C 11,7 °C 52 % 1021,9 hPa 0,0 l/m² 0 min 0 W/m² 3,2 km/h (1 Bft) 97,87 %
01.05.2026 23:56 16,5 °C 14,4 °C 11,7 °C 52 % 1021,8 hPa 0,0 l/m² 0 min 0 W/m² 3,2 km/h (1 Bft) 97,87 %
01.05.2026 23:58 16,4 °C 14,4 °C 11,1 °C 52 % 1021,9 hPa 0,0 l/m² 0 min 0 W/m² 3,2 km/h (1 Bft) 97,87 %
_ Min-Zeit 06:10 05:00 05:56 15:04 19:20 - - - 04:38 02:48
Minimum _ 9,4 °C 8,3 °C 5,0 °C 32 % 1021,6 hPa - - - 0,0 km/h (0 Bft) 56,00 %
_ Max-Zeit 16:28 14:22 13:24 05:58 08:34 00:00 08:26 13:30 10:48 00:08
Maximum _ 25,6 °C 30,6 °C 26,1 °C 67 % 1026,9 hPa 0,0 l/m² 2 min 880 W/m² 45,1 km/h
S (6 Bft)
100,00 %
Durchschnitt _ 17,8 °C 18,9 °C 14,0 °C 46 % 1024,8 hPa #0,0 l/m² #10:36 h 480 W/m² 15,0 km/h (3 Bft) 97,43 %
© 2026 W. Hausmann